VK4ZU-13 Weather Reports


time (UTC)temp
F
wind
direction
speed
knots
gust
knots
rain 1hr
in
rain 24hr
in
rain mn
in
humidity
%
barometer
mb
20260510035953 75 5 3.5 7.8 0.00 0.00 0.00 61 1025.0
20260510035855 75 97 3.5 7.8 0.00 0.00 0.00 62 1024.9
20260510035747 75 96 3.5 7.8 0.00 0.00 0.00 62 1024.9
20260510035713 75 78 3.5 7.8 0.00 0.00 0.00 62 1024.8
20260510035650 75 65 3.5 7.8 0.00 0.00 0.00 62 1024.9
20260510035436 75 96 3.5 7.8 0.00 0.00 0.00 61 1024.9
20260510035325 75 164 3.5 7.8 0.00 0.00 0.00 62 1024.9
20260510035216 75 355 3.5 6.1 0.00 0.00 0.00 61 1024.8
20260510035105 75 106 2.6 8.7 0.00 0.00 0.00 61 1024.8
20260510034957 76 56 2.6 8.7 0.00 0.00 0.00 61 1024.8
20260510034848 76 122 2.6 8.7 0.00 0.00 0.00 62 1024.8
20260510034748 76 126 2.6 8.7 0.00 0.00 0.00 61 1024.9
20260510034650 76 77 1.7 8.7 0.00 0.00 0.00 62 1024.9
20260510034540 76 49 1.7 8.7 0.00 0.00 0.00 61 1024.8
20260510034436 76 90 1.7 8.7 0.00 0.00 0.00 61 1024.8
20260510034338 76 146 1.7 8.7 0.00 0.00 0.00 62 1024.9
20260510034228 76 143 1.7 8.7 0.00 0.00 0.00 61 1024.8
20260510034151 76 182 1.7 7.0 0.00 0.00 0.00 62 1024.9
20260510034012 76 182 1.7 7.0 0.00 0.00 0.00 61 1024.9
20260510033900 76 188 1.7 7.0 0.00 0.00 0.00 62 1024.9
20260510033801 76 159 1.7 7.0 0.00 0.00 0.00 63 1024.9
20260510033702 76 96 1.7 7.0 0.00 0.00 0.00 61 1024.8
20260510033551 76 143 1.7 7.0 0.00 0.00 0.00 62 1024.8
20260510033442 76 84 1.7 7.0 0.00 0.00 0.00 61 1024.8
20260510033332 76 134 1.7 4.3 0.00 0.00 0.00 62 1024.8
20260510033221 77 115 1.7 3.5 0.00 0.00 0.00 62 1024.8
20260510033112 76 63 1.7 4.3 0.00 0.00 0.00 61 1024.8
20260510033002 76 34 1.7 4.3 0.00 0.00 0.00 61 1024.7
20260510032900 76 137 1.7 4.3 0.00 0.00 0.00 61 1024.7
20260510032802 76 77 1.7 4.3 0.00 0.00 0.00 62 1024.7
20260510032652 76 43 1.7 4.3 0.00 0.00 0.00 62 1024.7
20260510032547 76 51 1.7 4.3 0.00 0.00 0.00 62 1024.8
20260510032432 76 351 1.7 4.3 0.00 0.00 0.00 62 1024.8
20260510032322 76 65 1.7 4.3 0.00 0.00 0.00 62 1024.9
20260510032211 76 236 1.7 7.8 0.00 0.00 0.00 62 1024.8
20260510032102 76 67 1.7 7.8 0.00 0.00 0.00 61 1024.8
20260510031952 76 80 1.7 7.8 0.00 0.00 0.00 62 1024.9
20260510031844 76 36 2.6 7.8 0.00 0.00 0.00 60 1024.9
20260510031746 76 49 2.6 7.8 0.00 0.00 0.00 61 1024.9
20260510031646 76 117 2.6 7.8 0.00 0.00 0.00 61 1024.9
20260510031536 76 11 2.6 7.8 0.00 0.00 0.00 59 1024.9
20260510031426 76 36 1.7 7.8 0.00 0.00 0.00 60 1024.9
20260510031323 76 102 1.7 7.8 0.00 0.00 0.00 60 1024.9
20260510031223 76 167 1.7 7.8 0.00 0.00 0.00 60 1024.9
20260510031142 76 164 1.7 7.8 0.00 0.00 0.00 61 1025.0
20260510031007 76 97 1.7 7.8 0.00 0.00 0.00 59 1025.0
20260510030856 76 132 1.7 7.8 0.00 0.00 0.00 61 1024.9
20260510030743 76 109 1.7 7.8 0.00 0.00 0.00 59 1024.9
20260510030639 76 105 1.7 7.8 0.00 0.00 0.00 58 1024.8
20260510030538 76 141 1.7 7.8 0.00 0.00 0.00 60 1025.0
20260510030441 77 78 1.7 7.8 0.00 0.00 0.00 59 1024.9
20260510030347 77 59 1.7 7.8 0.00 0.00 0.00 57 1024.9
20260510030217 77 113 2.6 7.8 0.00 0.00 0.00 57 1024.8
20260510030107 78 70 2.6 7.8 0.00 0.00 0.00 57 1024.9
20260510030005 77 108 2.6 7.8 0.00 0.00 0.00 61 1024.9
20260510025903 77 90 2.6 7.8 0.00 0.00 0.00 60 1024.9
20260510025803 77 143 2.6 7.8 0.00 0.00 0.00 59 1024.8
20260510025703 77 109 1.7 7.8 0.00 0.00 0.00 57 1024.9
20260510025642 77 186 1.7 7.8 0.00 0.00 0.00 58 1025.1
20260510025440 77 50 1.7 6.1 0.00 0.00 0.00 57 1024.9
20260510025341 77 349 1.7 6.1 0.00 0.00 0.00 57 1025.0
20260510025230 77 167 1.7 6.1 0.00 0.00 0.00 55 1025.2
20260510025120 77 183 1.7 5.2 0.00 0.00 0.00 58 1025.2
20260510025010 77 112 1.7 5.2 0.00 0.00 0.00 59 1025.2
20260510024903 77 114 1.7 4.3 0.00 0.00 0.00 59 1025.2
20260510024755 77 165 1.7 4.3 0.00 0.00 0.00 58 1025.1
20260510024655 76 156 1.7 4.3 0.00 0.00 0.00 62 1025.2
20260510024553 76 70 1.7 4.3 0.00 0.00 0.00 59 1025.2
20260510024448 76 186 1.7 4.3 0.00 0.00 0.00 60 1025.2
20260510024347 76 88 1.7 4.3 0.00 0.00 0.00 59 1025.2
20260510024245 76 51 1.7 4.3 0.00 0.00 0.00 59 1025.2
20260510024148 76 344 1.7 4.3 0.00 0.00 0.00 58 1025.2
20260510024129 77 121 1.7 7.0 0.00 0.00 0.00 59 1025.2
20260510023932 76 75 2.6 7.0 0.00 0.00 0.00 57 1025.2
20260510023824 77 92 2.6 7.8 0.00 0.00 0.00 59 1025.2
20260510023712 77 30 2.6 7.8 0.00 0.00 0.00 60 1025.3
20260510023602 77 115 2.6 7.8 0.00 0.00 0.00 62 1025.2
20260510023452 76 109 2.6 7.8 0.00 0.00 0.00 60 1025.2
20260510023344 76 151 3.5 7.8 0.00 0.00 0.00 62 1025.2
20260510023231 76 113 2.6 7.8 0.00 0.00 0.00 59 1025.3
20260510023122 77 144 2.6 7.8 0.00 0.00 0.00 59 1025.3
20260510023012 78 119 2.6 7.8 0.00 0.00 0.00 58 1025.2
20260510022904 78 130 2.6 7.0 0.00 0.00 0.00 59 1025.2
20260510022804 78 169 1.7 6.1 0.00 0.00 0.00 58 1025.2
20260510022706 78 70 1.7 6.1 0.00 0.00 0.00 58 1025.4
20260510022617 78 120 1.7 4.3 0.00 0.00 0.00 57 1025.3
20260510022441 78 61 1.7 4.3 0.00 0.00 0.00 58 1025.3
20260510022334 78 52 1.7 3.5 0.00 0.00 0.00 58 1025.3
20260510022220 78 17 1.7 6.1 0.00 0.00 0.00 60 1025.4
20260510022110 78 5 1.7 6.1 0.00 0.00 0.00 57 1025.4
20260510022001 78 11 1.7 6.1 0.00 0.00 0.00 58 1025.4
20260510021850 78 29 1.7 6.1 0.00 0.00 0.00 60 1025.4
20260510021739 78 78 1.7 6.1 0.00 0.00 0.00 60 1025.4
20260510021630 78 127 1.7 6.1 0.00 0.00 0.00 60 1025.4
20260510021525 78 61 1.7 6.1 0.00 0.00 0.00 59 1025.4
20260510021425 78 196 1.7 6.1 0.00 0.00 0.00 62 1025.3
20260510021323 78 170 1.7 6.1 0.00 0.00 0.00 60 1025.3
20260510021219 78 178 1.7 6.1 0.00 0.00 0.00 59 1025.3
20260510021141 78 223 1.7 6.1 0.00 0.00 0.00 57 1025.4
20260510021116 78 121 1.7 6.1 0.00 0.00 0.00 59 1025.3
20260510020900 78 180 1.7 6.1 0.00 0.00 0.00 57 1025.3
20260510020758 78 146 1.7 6.1 0.00 0.00 0.00 65 1025.3
20260510020654 77 223 1.7 6.1 0.00 0.00 0.00 57 1025.4
20260510020554 77 146 1.7 6.1 0.00 0.00 0.00 64 1025.5
20260510020452 76 160 1.7 6.1 0.00 0.00 0.00 62 1025.5
20260510020348 76 78 1.7 6.1 0.00 0.00 0.00 64 1025.5
20260510020252 76 142 1.7 7.0 0.00 0.00 0.00 64 1025.5
20260510020138 76 124 1.7 7.0 0.00 0.00 0.00 63 1025.6
20260510020028 76 187 1.7 7.0 0.00 0.00 0.00 62 1025.6
20260510015918 77 199 1.7 7.0 0.00 0.00 0.00 60 1025.6
20260510015808 77 209 1.7 7.0 0.00 0.00 0.00 62 1025.6
20260510015658 77 215 1.7 7.0 0.00 0.00 0.00 62 1025.7
20260510015555 77 200 1.7 7.0 0.00 0.00 0.00 64 1025.6
20260510015346 76 91 1.7 7.0 0.00 0.00 0.00 64 1025.7
20260510015240 76 135 1.7 4.3 0.00 0.00 0.00 64 1025.6
20260510015126 76 122 1.7 4.3 0.00 0.00 0.00 62 1025.6
20260510015019 76 128 1.7 4.3 0.00 0.00 0.00 62 1025.6
20260510014918 76 113 1.7 4.3 0.00 0.00 0.00 63 1025.6
20260510014821 76 79 1.7 4.3 0.00 0.00 0.00 65 1025.7
20260510014715 76 130 1.7 4.3 0.00 0.00 0.00 63 1025.7
20260510014610 76 236 1.7 4.3 0.00 0.00 0.00 63 1025.8
20260510014511 76 144 0.9 4.3 0.00 0.00 0.00 63 1025.7
20260510014359 76 68 0.9 3.5 0.00 0.00 0.00 67 1025.7
20260510014250 75 11 0.9 3.5 0.00 0.00 0.00 67 1025.7
20260510014140 75 151 0.9 3.5 0.00 0.00 0.00 65 1025.7
20260510014037 74 109 0.9 3.5 0.00 0.00 0.00 67 1025.7
20260510013940 74 115 0.9 3.5 0.00 0.00 0.00 66 1025.7
20260510013828 74 57 0.9 3.5 0.00 0.00 0.00 65 1025.7
20260510013721 74 64 0.9 3.5 0.00 0.00 0.00 65 1025.8
20260510013608 74 87 0.9 3.5 0.00 0.00 0.00 67 1025.8
20260510013458 74 154 0.9 3.5 0.00 0.00 0.00 67 1025.9
20260510013348 74 164 0.9 3.5 0.00 0.00 0.00 67 1026.0
20260510013237 74 164 0.9 3.5 0.00 0.00 0.00 67 1026.1
20260510013128 74 59 0.9 3.5 0.00 0.00 0.00 66 1026.2
20260510013018 74 103 0.9 6.1 0.00 0.00 0.00 66 1026.1
20260510012910 74 103 1.7 6.1 0.00 0.00 0.00 66 1026.1
20260510012806 74 103 1.7 6.1 0.00 0.00 0.00 66 1026.1
20260510012702 74 103 1.7 6.1 0.00 0.00 0.00 64 1026.2
20260510012601 74 26 1.7 6.1 0.00 0.00 0.00 67 1026.2
20260510012456 74 135 1.7 7.0 0.00 0.00 0.00 66 1026.2
20260510012356 74 148 1.7 7.0 0.00 0.00 0.00 64 1026.1
20260510012246 75 80 2.6 7.0 0.00 0.00 0.00 64 1026.2
20260510012140 75 27 2.6 7.0 0.00 0.00 0.00 64 1026.3
20260510012032 75 146 1.7 7.0 0.00 0.00 0.00 63 1026.2
20260510011930 76 116 1.7 7.0 0.00 0.00 0.00 63 1026.3
20260510011830 76 323 1.7 7.0 0.00 0.00 0.00 63 1026.1
20260510011720 76 98 2.6 7.0 0.00 0.00 0.00 64 1026.1
20260510011616 76 59 2.6 7.8 0.00 0.00 0.00 62 1026.1
20260510011513 76 120 2.6 7.8 0.00 0.00 0.00 65 1026.1
20260510011414 77 189 2.6 7.8 0.00 0.00 0.00 64 1026.1
20260510011304 76 246 2.6 7.8 0.00 0.00 0.00 62 1026.1
20260510011154 76 193 2.6 7.8 0.00 0.00 0.00 62 1026.1
20260510011044 76 126 2.6 7.8 0.00 0.00 0.00 65 1026.0
20260510010945 76 231 2.6 7.8 0.00 0.00 0.00 66 1026.0
20260510010844 76 101 2.6 7.8 0.00 0.00 0.00 65 1026.0
20260510010734 75 130 2.6 7.8 0.00 0.00 0.00 65 1026.0
20260510010635 75 151 2.6 7.8 0.00 0.00 0.00 66 1026.0
20260510010536 75 122 1.7 7.8 0.00 0.00 0.00 69 1026.0
20260510010425 74 138 2.6 7.8 0.00 0.00 0.00 68 1026.0
20260510010321 74 138 2.6 7.8 0.00 0.00 0.00 69 1026.0
20260510010220 73 126 2.6 7.8 0.00 0.00 0.00 68 1026.0
20260510010125 73 85 1.7 7.8 0.00 0.00 0.00 67 1026.0
20260510010011 73 132 1.7 7.8 0.00 0.00 0.00 67 1026.1
20260510005900 73 43 1.7 7.8 0.00 0.00 0.00 68 1026.0
20260510005750 73 150 2.6 7.8 0.00 0.00 0.00 67 1026.1
20260510005640 73 145 2.6 7.8 0.00 0.00 0.00 67 1026.1
20260510005530 73 143 1.7 7.8 0.00 0.00 0.00 68 1026.2
20260510005432 74 135 1.7 7.8 0.00 0.00 0.00 68 1026.2
20260510005328 74 79 1.7 5.2 0.00 0.00 0.00 67 1026.2
20260510005225 74 148 1.7 5.2 0.00 0.00 0.00 68 1026.3
20260510005123 74 119 1.7 5.2 0.00 0.00 0.00 69 1026.2
20260510005022 74 123 1.7 5.2 0.00 0.00 0.00 67 1026.2
20260510004912 74 74 1.7 5.2 0.00 0.00 0.00 67 1026.2
20260510004802 74 58 1.7 5.2 0.00 0.00 0.00 67 1026.1
20260510004652 74 105 1.7 5.2 0.00 0.00 0.00 69 1026.3
20260510004549 74 220 1.7 5.2 0.00 0.00 0.00 67 1026.3
20260510004446 74 220 0.9 5.2 0.00 0.00 0.00 67 1026.2
20260510004347 74 167 0.9 4.3 0.00 0.00 0.00 67 1026.2
20260510004236 74 168 0.9 4.3 0.00 0.00 0.00 67 1026.1
20260510004126 74 159 0.9 4.3 0.00 0.00 0.00 68 1026.2
20260510004040 74 219 0.9 4.3 0.00 0.00 0.00 67 1026.4
20260510004013 74 180 0.9 4.3 0.00 0.00 0.00 69 1026.4
20260510003813 74 225 0.9 4.3 0.00 0.00 0.00 69 1026.4
20260510003705 74 225 0.9 4.3 0.00 0.00 0.00 68 1026.3
20260510003557 74 205 0.9 4.3 0.00 0.00 0.00 70 1026.4
20260510003450 74 205 1.7 4.3 0.00 0.00 0.00 69 1026.4
20260510003348 74 239 1.7 4.3 0.00 0.00 0.00 69 1026.4
20260510003248 73 222 1.7 7.0 0.00 0.00 0.00 68 1026.5
20260510003138 73 249 1.7 7.0 0.00 0.00 0.00 68 1026.6
20260510003028 73 181 1.7 7.0 0.00 0.00 0.00 68 1026.5
20260510002917 74 181 1.7 7.0 0.00 0.00 0.00 69 1026.5
20260510002809 73 181 1.7 7.0 0.00 0.00 0.00 70 1026.6
20260510002700 73 181 1.7 7.0 0.00 0.00 0.00 68 1026.6
20260510002601 74 181 1.7 7.0 0.00 0.00 0.00 68 1026.7
20260510002458 74 215 1.7 7.0 0.00 0.00 0.00 68 1026.6
20260510002353 74 213 1.7 7.0 0.00 0.00 0.00 68 1026.5
20260510002256 74 229 1.7 3.5 0.00 0.00 0.00 69 1026.5
20260510002145 74 198 0.9 2.6 0.00 0.00 0.00 69 1026.5
20260510002040 74 188 1.7 2.6 0.00 0.00 0.00 68 1026.5
20260510001934 74 215 1.7 2.6 0.00 0.00 0.00 67 1026.4
20260510001832 74 263 0.9 2.6 0.00 0.00 0.00 66 1026.4
20260510001732 74 216 0.9 2.6 0.00 0.00 0.00 67 1026.5
20260510001628 75 248 0.9 2.6 0.00 0.00 0.00 67 1026.5
20260510001526 75 252 0.9 5.2 0.00 0.00 0.00 67 1026.4
20260510001425 74 121 0.9 5.2 0.00 0.00 0.00 67 1026.4
20260510001318 74 144 0.9 6.1 0.00 0.00 0.00 69 1026.6
20260510001209 74 150 0.9 6.1 0.00 0.00 0.00 67 1026.6
20260510001059 74 269 0.9 6.1 0.00 0.00 0.00 65 1026.6
20260510001015 74 175 0.9 6.1 0.00 0.00 0.00 68 1026.6
20260510000948 74 309 0.9 6.1 0.00 0.00 0.00 67 1026.6
20260510000747 74 260 0.9 6.1 0.00 0.00 0.00 66 1026.6
20260510000640 75 247 0.9 6.1 0.00 0.00 0.00 64 1026.7
20260510000532 75 76 0.9 6.1 0.00 0.00 0.00 65 1026.6
20260510000419 75 49 0.0 2.6 0.00 0.00 0.00 65 1026.7
20260510000312 75 175 0.9 2.6 0.00 0.00 0.00 65 1026.5
20260510000204 75 175 0.9 2.6 0.00 0.00 0.00 65 1026.5
20260510000052 74 120 0.9 1.7 0.00 0.00 0.00 67 1026.5
20260509235942 74 120 0.9 2.6 0.00 0.00 0.00 69 1026.5
20260509235836 74 315 0.9 7.8 0.00 0.00 0.00 68 1026.4
20260509235733 74 315 0.9 7.8 0.00 0.00 0.00 66 1026.6
20260509235633 74 344 0.9 7.8 0.00 0.00 0.00 68 1026.4
20260509235532 74 344 1.7 7.8 0.00 0.00 0.00 68 1026.4
20260509235424 74 15 1.7 7.8 0.00 0.00 0.00 70 1026.4
20260509235321 74 5 1.7 7.8 0.00 0.00 0.00 69 1026.4
20260509235222 73 297 1.7 7.8 0.00 0.00 0.00 69 1026.3
20260509235112 73 28 2.6 7.8 0.00 0.00 0.00 69 1026.3
20260509235007 73 10 2.6 7.8 0.00 0.00 0.00 69 1026.3
20260509234859 73 109 2.6 7.8 0.00 0.00 0.00 69 1026.3
20260509234745 73 232 2.6 7.8 0.00 0.00 0.00 68 1026.3
20260509234635 73 232 2.6 7.8 0.00 0.00 0.00 68 1026.4
20260509234607 73 79 1.7 7.8 0.00 0.00 0.00 72 1026.4
20260509234419 73 50 1.7 7.8 0.00 0.00 0.00 70 1026.4
20260509234310 72 49 1.7 7.8 0.00 0.00 0.00 70 1026.3
20260509234159 72 63 0.9 7.8 0.00 0.00 0.00 71 1026.3
20260509234051 72 52 0.9 7.8 0.00 0.00 0.00 71 1026.3
20260509233945 72 14 0.9 7.8 0.00 0.00 0.00 70 1026.2
20260509233903 72 86 0.0 1.7 0.00 0.00 0.00 72 1026.4
20260509233730 71 313 0.0 1.7 0.00 0.00 0.00 71 1026.3
20260509233632 71 303 0.0 1.7 0.00 0.00 0.00 71 1026.3
20260509233523 71 303 0.0 1.7 0.00 0.00 0.00 72 1026.4
20260509233423 71 303 0.0 1.7 0.00 0.00 0.00 73 1026.4
20260509233321 71 303 0.0 1.7 0.00 0.00 0.00 72 1026.4
20260509233220 70 303 0.9 1.7 0.00 0.00 0.00 73 1026.2
20260509233114 70 303 0.0 1.7 0.00 0.00 0.00 73 1026.3
20260509233012 70 73 0.9 2.6 0.00 0.00 0.00 73 1026.2
20260509232913 70 73 0.9 2.6 0.00 0.00 0.00 73 1026.3
20260509232806 70 355 0.9 2.6 0.00 0.00 0.00 73 1026.3
20260509232705 70 258 0.9 2.6 0.00 0.00 0.00 73 1026.2
20260509232607 69 258 0.0 2.6 0.00 0.00 0.00 73 1026.2
20260509232505 69 258 0.0 2.6 0.00 0.00 0.00 74 1026.1
20260509232410 69 258 0.9 2.6 0.00 0.00 0.00 72 1026.2
20260509232306 69 258 0.0 2.6 0.00 0.00 0.00 73 1026.1
20260509232159 69 258 0.0 2.6 0.00 0.00 0.00 73 1026.1
20260509232059 69 282 0.0 1.7 0.00 0.00 0.00 73 1026.0
20260509231950 68 286 0.0 1.7 0.00 0.00 0.00 75 1026.0
20260509231839 68 300 0.0 1.7 0.00 0.00 0.00 74 1026.0
20260509231730 68 300 0.0 1.7 0.00 0.00 0.00 75 1026.2
20260509231622 68 300 0.0 1.7 0.00 0.00 0.00 73 1026.1
20260509231512 68 300 0.0 1.7 0.00 0.00 0.00 74 1026.1
20260509231407 68 302 0.0 1.7 0.00 0.00 0.00 75 1026.0
20260509231255 67 302 0.0 1.7 0.00 0.00 0.00 74 1026.0
20260509231156 67 302 0.0 1.7 0.00 0.00 0.00 74 1025.9
20260509231056 67 302 0.0 1.7 0.00 0.00 0.00 74 1025.9
20260509230950 67 302 0.0 1.7 0.00 0.00 0.00 75 1026.0
20260509230844 67 302 0.0 1.7 0.00 0.00 0.00 75 1026.0
20260509230740 66 302 0.0 1.7 0.00 0.00 0.00 75 1025.9
20260509230629 66 302 0.0 1.7 0.00 0.00 0.00 75 1026.0
20260509230533 66 302 0.0 1.7 0.00 0.00 0.00 76 1026.1
20260509230422 66 37 0.9 1.7 0.00 0.00 0.00 77 1026.0
20260509230312 66 37 0.9 2.6 0.00 0.00 0.00 77 1026.1
20260509230204 65 37 0.9 3.5 0.00 0.00 0.00 77 1026.0
20260509230055 65 37 0.9 3.5 0.00 0.00 0.00 77 1026.1
20260509225943 65 37 0.9 3.5 0.00 0.00 0.00 77 1026.0
20260509225837 65 37 0.9 3.5 0.00 0.00 0.00 79 1026.0
20260509225729 65 37 0.9 3.5 0.00 0.00 0.00 77 1025.9
20260509225627 65 37 0.9 3.5 0.00 0.00 0.00 77 1025.9
20260509225528 65 37 0.9 3.5 0.00 0.00 0.00 77 1025.9
20260509225426 65 37 0.9 3.5 0.00 0.00 0.00 78 1025.9
20260509225323 64 34 0.9 3.5 0.00 0.00 0.00 79 1025.8
20260509225224 64 67 0.9 2.6 0.00 0.00 0.00 79 1025.8
20260509225117 64 56 0.9 2.6 0.00 0.00 0.00 79 1025.8
20260509225020 64 55 0.9 2.6 0.00 0.00 0.00 78 1025.8
20260509224912 64 28 0.9 2.6 0.00 0.00 0.00 79 1025.7
20260509224807 64 36 0.9 2.6 0.00 0.00 0.00 79 1025.7
20260509224703 64 44 0.9 2.6 0.00 0.00 0.00 79 1025.8
20260509224606 64 48 0.9 2.6 0.00 0.00 0.00 78 1025.7
20260509224455 64 30 0.9 2.6 0.00 0.00 0.00 78 1025.8
20260509224345 64 49 0.0 1.7 0.00 0.00 0.00 81 1025.7
20260509224240 64 327 0.9 1.7 0.00 0.00 0.00 79 1025.7
20260509224126 64 327 0.9 1.7 0.00 0.00 0.00 78 1025.7
20260509224023 64 327 0.9 1.7 0.00 0.00 0.00 79 1025.7
20260509223923 63 327 0.9 1.7 0.00 0.00 0.00 79 1025.8
20260509223821 63 12 0.9 1.7 0.00 0.00 0.00 78 1025.9
20260509223721 63 12 0.9 1.7 0.00 0.00 0.00 80 1025.9
20260509223616 63 12 0.9 1.7 0.00 0.00 0.00 80 1025.9
20260509223514 63 12 0.9 1.7 0.00 0.00 0.00 80 1025.8
20260509223413 62 12 0.9 1.7 0.00 0.00 0.00 81 1025.9
20260509223313 62 19 0.9 1.7 0.00 0.00 0.00 81 1025.9
20260509223209 62 20 0.9 1.7 0.00 0.00 0.00 80 1025.9
20260509223107 62 225 0.9 1.7 0.00 0.00 0.00 80 1025.9
20260509223007 61 225 0.9 2.6 0.00 0.00 0.00 81 1025.8
20260509222903 61 225 0.9 2.6 0.00 0.00 0.00 81 1025.8
20260509222802 61 225 0.9 2.6 0.00 0.00 0.00 81 1025.9
20260509222702 60 225 0.9 2.6 0.00 0.00 0.00 81 1026.0
20260509222556 60 225 0.9 2.6 0.00 0.00 0.00 81 1025.9
20260509222455 61 225 0.9 2.6 0.00 0.00 0.00 81 1026.0
20260509222355 61 225 0.9 2.6 0.00 0.00 0.00 81 1025.9
20260509222245 61 225 0.9 2.6 0.00 0.00 0.00 82 1025.9
20260509222140 61 225 0.9 2.6 0.00 0.00 0.00 84 1026.0
20260509222035 60 225 0.9 2.6 0.00 0.00 0.00 82 1026.0
20260509221934 60 251 1.7 2.6 0.00 0.00 0.00 82 1026.0
20260509221823 60 251 1.7 3.5 0.00 0.00 0.00 82 1026.1
20260509221716 59 251 1.7 3.5 0.00 0.00 0.00 83 1026.0
20260509221606 59 251 1.7 3.5 0.00 0.00 0.00 84 1026.0
20260509221506 59 251 0.9 3.5 0.00 0.00 0.00 84 1026.0
20260509221407 58 243 0.9 3.5 0.00 0.00 0.00 84 1026.0
20260509221305 58 248 0.9 3.5 0.00 0.00 0.00 84 1026.0
20260509221201 58 265 0.9 3.5 0.00 0.00 0.00 84 1026.0
20260509221102 58 257 0.0 3.5 0.00 0.00 0.00 84 1025.9
20260509220951 58 257 0.0 3.5 0.00 0.00 0.00 85 1025.9
20260509220841 58 215 0.0 0.0 0.00 0.00 0.00 86 1026.0
20260509220731 58 215 0.0 0.0 0.00 0.00 0.00 86 1025.9
20260509220517 57 215 0.0 0.0 0.00 0.00 0.00 86 1026.0
20260509220418 57 215 0.0 0.0 0.00 0.00 0.00 86 1026.0
20260509220308 57 215 0.0 0.0 0.00 0.00 0.00 86 1026.0
20260509220159 57 215 0.0 0.0 0.00 0.00 0.00 87 1026.0
20260509220048 57 215 0.0 0.0 0.00 0.00 0.00 87 1026.1
20260509215938 57 215 0.0 0.0 0.00 0.00 0.00 86 1026.0
20260509215829 57 215 0.0 0.0 0.00 0.00 0.00 88 1026.1
20260509215719 57 215 0.0 0.9 0.00 0.00 0.00 88 1026.1
20260509215616 56 215 0.0 0.9 0.00 0.00 0.00 87 1026.1
20260509215514 56 215 0.0 0.9 0.00 0.00 0.00 88 1026.1
20260509215413 56 215 0.0 0.9 0.00 0.00 0.00 88 1026.1
20260509215305 56 215 0.0 0.9 0.00 0.00 0.00 90 1026.1
20260509215153 56 215 0.0 0.9 0.00 0.00 0.00 89 1026.1
20260509215049 56 215 0.0 0.9 0.00 0.00 0.00 89 1026.1
20260509214945 56 215 0.0 0.9 0.00 0.00 0.00 90 1026.1
20260509214843 56 215 0.0 0.9 0.00 0.00 0.00 90 1026.1
20260509214733 56 215 0.0 0.9 0.00 0.00 0.00 90 1026.0
20260509214623 56 215 0.0 0.0 0.00 0.00 0.00 90 1026.1
20260509214515 55 215 0.0 0.0 0.00 0.00 0.00 89 1026.0
20260509214403 55 215 0.0 0.0 0.00 0.00 0.00 89 1026.0
20260509214253 55 215 0.0 0.0 0.00 0.00 0.00 90 1025.9
20260509214143 55 215 0.0 0.0 0.00 0.00 0.00 90 1025.9
20260509214036 55 215 0.0 0.0 0.00 0.00 0.00 91 1025.9
20260509213923 55 215 0.0 0.0 0.00 0.00 0.00 91 1025.8
20260509213813 55 215 0.0 0.0 0.00 0.00 0.00 91 1025.8
20260509213703 55 215 0.0 0.0 0.00 0.00 0.00 90 1025.9
20260509213554 55 215 0.0 0.0 0.00 0.00 0.00 91 1025.8
20260509213443 54 215 0.0 0.0 0.00 0.00 0.00 91 1025.8
20260509213339 54 215 0.0 0.0 0.00 0.00 0.00 91 1025.8
20260509213240 54 215 0.0 0.0 0.00 0.00 0.00 91 1025.6
20260509213027 54 215 0.0 0.0 0.00 0.00 0.00 91 1025.6
20260509212922 54 215 0.0 0.0 0.00 0.00 0.00 92 1025.6
20260509212825 54 215 0.0 0.0 0.00 0.00 0.00 92 1025.6
20260509212715 53 215 0.0 0.0 0.00 0.00 0.00 92 1025.5
20260509212605 53 215 0.0 0.0 0.00 0.00 0.00 92 1025.6
20260509212457 53 215 0.0 0.0 0.00 0.00 0.00 92 1025.6
20260509212345 53 215 0.0 0.0 0.00 0.00 0.00 92 1025.5
20260509212235 53 215 0.0 0.0 0.00 0.00 0.00 92 1025.4
20260509212201 53 215 0.0 0.0 0.00 0.00 0.00 92 1025.5
20260509212015 53 215 0.0 0.0 0.00 0.00 0.00 92 1025.4
20260509211905 52 215 0.0 1.7 0.00 0.00 0.00 92 1025.4
20260509211801 52 215 0.0 1.7 0.00 0.00 0.00 91 1025.4
20260509211702 52 215 0.0 1.7 0.00 0.00 0.00 91 1025.3
20260509211553 52 215 0.0 1.7 0.00 0.00 0.00 92 1025.3
20260509211442 52 215 0.0 1.7 0.00 0.00 0.00 91 1025.4
20260509211333 52 215 0.0 1.7 0.00 0.00 0.00 91 1025.4
20260509211224 52 215 0.0 1.7 0.00 0.00 0.00 91 1025.3
20260509211113 52 215 0.0 1.7 0.00 0.00 0.00 91 1025.4
20260509211003 52 215 0.0 1.7 0.00 0.00 0.00 91 1025.4
20260509210855 52 215 0.0 1.7 0.00 0.00 0.00 91 1025.3
20260509210756 52 215 0.0 1.7 0.00 0.00 0.00 91 1025.4
20260509210657 52 215 0.0 1.7 0.00 0.00 0.00 91 1025.3
20260509210546 52 215 0.0 1.7 0.00 0.00 0.00 91 1025.3
20260509210437 52 215 0.0 1.7 0.00 0.00 0.00 91 1025.3
20260509210327 52 215 0.0 1.7 0.00 0.00 0.00 91 1025.2
20260509210223 52 215 0.0 1.7 0.00 0.00 0.00 91 1025.2
20260509210124 52 215 0.0 1.7 0.00 0.00 0.00 91 1025.2
20260509210018 52 215 0.0 0.9 0.00 0.00 0.00 91 1025.1
20260509205904 52 215 0.0 0.9 0.00 0.00 0.00 91 1025.2
20260509205755 52 215 0.0 0.9 0.00 0.00 0.00 91 1025.1
20260509205645 52 215 0.0 0.0 0.00 0.00 0.00 91 1025.1
20260509205535 52 215 0.0 0.0 0.00 0.00 0.00 91 1025.1
20260509205426 52 215 0.0 0.0 0.00 0.00 0.00 91 1025.1
20260509205314 52 215 0.0 0.9 0.00 0.00 0.00 91 1025.1
20260509205205 52 215 0.0 2.6 0.00 0.00 0.00 91 1025.1
20260509204954 52 215 0.0 2.6 0.00 0.00 0.00 91 1025.1
20260509204851 52 215 0.9 2.6 0.00 0.00 0.00 91 1025.0
20260509204748 52 215 0.9 2.6 0.00 0.00 0.00 91 1025.0
20260509204642 52 215 0.9 2.6 0.00 0.00 0.00 91 1025.1
20260509204543 52 215 0.9 2.6 0.00 0.00 0.00 91 1025.0
20260509204438 52 215 0.9 2.6 0.00 0.00 0.00 91 1025.0
20260509204323 52 215 0.9 2.6 0.00 0.00 0.00 91 1025.0
20260509204221 52 162 0.9 1.7 0.00 0.00 0.00 91 1025.0
20260509204117 52 162 0.9 1.7 0.00 0.00 0.00 91 1025.0
20260509204017 52 162 0.0 1.7 0.00 0.00 0.00 91 1025.0
20260509203906 52 162 0.9 1.7 0.00 0.00 0.00 91 1024.9
20260509203757 52 57 0.9 2.6 0.00 0.00 0.00 90 1024.8
20260509203648 52 57 0.0 2.6 0.00 0.00 0.00 90 1024.8
20260509203548 52 101 0.0 2.6 0.00 0.00 0.00 90 1024.8
20260509203449 52 151 0.0 2.6 0.00 0.00 0.00 90 1024.8
20260509203338 52 151 0.0 2.6 0.00 0.00 0.00 90 1024.8
20260509203227 52 151 0.0 2.6 0.00 0.00 0.00 90 1024.8
20260509203123 52 151 0.0 2.6 0.00 0.00 0.00 90 1024.8
20260509203024 52 151 0.0 2.6 0.00 0.00 0.00 90 1024.7
20260509202919 52 180 0.0 2.6 0.00 0.00 0.00 90 1024.7
20260509202805 52 192 0.0 0.0 0.00 0.00 0.00 91 1024.8
20260509202654 52 192 0.0 0.9 0.00 0.00 0.00 90 1024.8
20260509202553 52 192 0.0 1.7 0.00 0.00 0.00 91 1024.7
20260509202450 52 192 0.0 1.7 0.00 0.00 0.00 91 1024.6
20260509202352 52 192 0.0 1.7 0.00 0.00 0.00 91 1024.7
20260509202239 52 192 0.0 1.7 0.00 0.00 0.00 91 1024.8
20260509202129 52 192 0.0 1.7 0.00 0.00 0.00 91 1024.8
20260509202019 52 192 0.0 1.7 0.00 0.00 0.00 91 1024.7
20260509201908 52 192 0.0 1.7 0.00 0.00 0.00 91 1024.7
20260509201759 52 192 0.0 1.7 0.00 0.00 0.00 91 1024.7
20260509201649 52 192 0.0 1.7 0.00 0.00 0.00 91 1024.8
20260509201545 52 192 0.0 1.7 0.00 0.00 0.00 91 1024.7
20260509201450 52 192 0.0 1.7 0.00 0.00 0.00 91 1024.7
20260509201353 52 192 0.0 1.7 0.00 0.00 0.00 91 1024.6
20260509201227 52 192 0.0 1.7 0.00 0.00 0.00 91 1024.5
20260509201117 52 192 0.0 1.7 0.00 0.00 0.00 91 1024.5
20260509201007 52 112 0.0 1.7 0.00 0.00 0.00 91 1024.6
20260509200857 52 112 0.0 1.7 0.00 0.00 0.00 91 1024.5
20260509200747 52 112 0.0 1.7 0.00 0.00 0.00 91 1024.5
20260509200637 52 112 0.0 1.7 0.00 0.00 0.00 91 1024.4
20260509200527 52 85 0.0 1.7 0.00 0.00 0.00 91 1024.4
20260509200417 52 85 0.0 1.7 0.00 0.00 0.00 91 1024.4
20260509200314 52 85 0.0 1.7 0.00 0.00 0.00 91 1024.4
20260509200213 52 85 0.0 1.7 0.00 0.00 0.00 91 1024.5
20260509200111 52 85 0.0 1.7 0.00 0.00 0.00 91 1024.4
20260509200007 52 85 0.0 1.7 0.00 0.00 0.00 91 1024.3
20260509195907 52 85 0.0 1.7 0.00 0.00 0.00 91 1024.4
20260509195801 52 85 0.9 1.7 0.00 0.00 0.00 91 1024.5
20260509195646 52 85 0.9 1.7 0.00 0.00 0.00 91 1024.5
20260509195537 52 85 0.0 1.7 0.00 0.00 0.00 91 1024.4
20260509195437 52 85 0.0 1.7 0.00 0.00 0.00 91 1024.6
20260509195331 52 85 0.0 1.7 0.00 0.00 0.00 91 1024.5
20260509195235 52 211 0.0 1.7 0.00 0.00 0.00 91 1024.6
20260509195121 52 286 0.0 1.7 0.00 0.00 0.00 91 1024.5
20260509195010 52 286 0.9 1.7 0.00 0.00 0.00 91 1024.5
20260509194901 52 286 0.0 3.5 0.00 0.00 0.00 91 1024.4
20260509194751 52 219 0.0 3.5 0.00 0.00 0.00 91 1024.4
20260509194641 52 247 0.0 3.5 0.00 0.00 0.00 91 1024.4
20260509194532 52 247 0.0 3.5 0.00 0.00 0.00 91 1024.5
20260509194432 52 247 0.0 3.5 0.00 0.00 0.00 91 1024.4
20260509194331 52 247 0.0 3.5 0.00 0.00 0.00 91 1024.3
20260509194225 52 229 0.0 3.5 0.00 0.00 0.00 91 1024.3
20260509194112 52 141 0.0 3.5 0.00 0.00 0.00 91 1024.4
20260509194001 52 141 0.0 3.5 0.00 0.00 0.00 91 1024.3
20260509193856 52 146 0.0 3.5 0.00 0.00 0.00 91 1024.2
20260509193755 52 214 0.0 0.0 0.00 0.00 0.00 91 1024.2
20260509193655 52 214 0.0 0.0 0.00 0.00 0.00 91 1024.3
20260509193215 52 214 0.0 0.0 0.00 0.00 0.00 91 1024.2
20260509193101 52 214 0.0 0.0 0.00 0.00 0.00 91 1024.2
20260509192953 52 214 0.0 0.0 0.00 0.00 0.00 91 1024.2
20260509192851 52 214 0.0 0.9 0.00 0.00 0.00 90 1024.2
20260509192750 52 146 0.0 1.7 0.00 0.00 0.00 90 1024.3
20260509192638 52 146 0.0 1.7 0.00 0.00 0.00 90 1024.2
20260509192528 52 146 0.0 1.7 0.00 0.00 0.00 90 1024.2
20260509192420 52 146 0.0 1.7 0.00 0.00 0.00 90 1024.2
20260509192309 52 146 0.0 1.7 0.00 0.00 0.00 90 1024.3
20260509192208 51 146 0.0 2.6 0.00 0.00 0.00 90 1024.3
20260509192141 51 146 0.0 2.6 0.00 0.00 0.00 90 1024.1
20260509192014 51 146 0.9 2.6 0.00 0.00 0.00 90 1024.1
20260509191830 51 159 0.9 2.6 0.00 0.00 0.00 90 1024.2
20260509191719 51 159 0.9 2.6 0.00 0.00 0.00 90 1024.3
20260509191609 51 159 0.9 2.6 0.00 0.00 0.00 90 1024.2
20260509191459 51 159 0.9 2.6 0.00 0.00 0.00 90 1024.3
20260509191354 51 159 0.0 2.6 0.00 0.00 0.00 90 1024.2
20260509191325 51 159 0.9 2.6 0.00 0.00 0.00 90 1024.2
20260509191150 51 199 0.9 2.6 0.00 0.00 0.00 90 1024.2
20260509191044 51 199 0.0 2.6 0.00 0.00 0.00 90 1024.2
20260509190940 51 164 0.0 2.6 0.00 0.00 0.00 90 1024.2
20260509190841 51 233 0.9 2.6 0.00 0.00 0.00 90 1024.2
20260509190731 51 240 0.9 2.6 0.00 0.00 0.00 90 1024.2
20260509190647 51 240 0.9 2.6 0.00 0.00 0.00 90 1024.2
20260509190620 51 240 0.9 2.6 0.00 0.00 0.00 90 1024.2
20260509190425 51 240 0.9 2.6 0.00 0.00 0.00 90 1024.2
20260509190315 51 240 0.9 2.6 0.00 0.00 0.00 90 1024.3
20260509190204 51 156 0.9 2.6 0.00 0.00 0.00 90 1024.2
20260509190112 51 156 0.9 2.6 0.00 0.00 0.00 90 1024.2
20260509185947 51 91 0.9 2.6 0.00 0.00 0.00 90 1024.2
20260509185839 51 56 0.9 2.6 0.00 0.00 0.00 90 1024.1
20260509185812 51 56 0.0 1.7 0.00 0.00 0.00 90 1024.2
20260509185636 51 109 0.0 1.7 0.00 0.00 0.00 90 1024.2
20260509185536 51 109 0.0 1.7 0.00 0.00 0.00 90 1024.2
20260509185431 51 109 0.0 1.7 0.00 0.00 0.00 90 1024.1
20260509185336 51 90 0.0 1.7 0.00 0.00 0.00 90 1024.2
20260509185220 51 309 0.0 1.7 0.00 0.00 0.00 90 1024.1
20260509185135 51 309 0.0 1.7 0.00 0.00 0.00 90 1024.1
20260509185107 51 309 0.0 1.7 0.00 0.00 0.00 89 1024.1
20260509184854 51 309 0.0 1.7 0.00 0.00 0.00 90 1024.0
20260509184745 51 309 0.0 1.7 0.00 0.00 0.00 90 1024.1
20260509184637 51 309 0.0 1.7 0.00 0.00 0.00 90 1024.1
20260509184532 51 309 0.0 1.7 0.00 0.00 0.00 90 1024.0
20260509184420 51 309 0.0 1.7 0.00 0.00 0.00 90 1024.1
20260509184313 51 309 0.0 1.7 0.00 0.00 0.00 90 1024.1
20260509184210 51 309 0.0 0.9 0.00 0.00 0.00 89 1024.1
20260509184110 51 309 0.0 0.0 0.00 0.00 0.00 89 1024.1
20260509184002 51 309 0.0 0.0 0.00 0.00 0.00 89 1024.0
20260509183851 51 309 0.0 1.7 0.00 0.00 0.00 89 1024.1
20260509183742 51 309 0.0 1.7 0.00 0.00 0.00 89 1024.1
20260509183634 51 309 0.0 1.7 0.00 0.00 0.00 89 1024.1
20260509183529 51 309 0.0 1.7 0.00 0.00 0.00 89 1024.1
20260509183418 51 309 0.0 1.7 0.00 0.00 0.00 89 1024.1
20260509183315 51 309 0.0 1.7 0.00 0.00 0.00 89 1024.1
20260509183213 51 309 0.0 1.7 0.00 0.00 0.00 89 1024.1
20260509183110 51 309 0.0 1.7 0.00 0.00 0.00 89 1024.0
20260509183016 51 309 0.0 1.7 0.00 0.00 0.00 89 1024.0
20260509182911 51 309 0.0 0.9 0.00 0.00 0.00 89 1024.0
20260509182810 51 309 0.0 0.0 0.00 0.00 0.00 89 1024.0
20260509182709 51 309 0.0 0.0 0.00 0.00 0.00 89 1024.1
20260509182609 51 309 0.0 0.0 0.00 0.00 0.00 89 1024.0
20260509182523 51 309 0.0 0.0 0.00 0.00 0.00 89 1024.0
20260509182405 51 309 0.0 0.0 0.00 0.00 0.00 89 1024.0
20260509182301 51 309 0.0 0.0 0.00 0.00 0.00 89 1024.0
20260509182154 51 309 0.0 0.0 0.00 0.00 0.00 89 1024.0
20260509182045 51 309 0.0 0.0 0.00 0.00 0.00 89 1024.0
20260509181828 51 309 0.0 0.0 0.00 0.00 0.00 89 1024.0
20260509181721 51 309 0.0 0.0 0.00 0.00 0.00 89 1024.0
20260509181611 51 309 0.0 0.0 0.00 0.00 0.00 89 1024.0
20260509181507 51 309 0.0 0.0 0.00 0.00 0.00 89 1024.1
20260509181357 51 309 0.0 0.0 0.00 0.00 0.00 89 1024.1
20260509181251 51 309 0.0 0.0 0.00 0.00 0.00 89 1024.0
20260509181151 51 309 0.0 0.0 0.00 0.00 0.00 89 1024.1
20260509181049 51 309 0.0 0.0 0.00 0.00 0.00 89 1024.1
20260509180939 51 309 0.0 0.0 0.00 0.00 0.00 89 1024.0
20260509180829 51 309 0.0 0.9 0.00 0.00 0.00 89 1024.0
20260509180720 51 309 0.0 0.9 0.00 0.00 0.00 89 1024.0
20260509180618 51 309 0.0 0.9 0.00 0.00 0.00 89 1024.1
20260509180551 51 309 0.0 0.9 0.00 0.00 0.00 89 1024.1
20260509180419 51 309 0.0 0.9 0.00 0.00 0.00 89 1024.1
20260509180317 51 309 0.0 0.9 0.00 0.00 0.00 89 1024.0
20260509180213 51 309 0.0 0.9 0.00 0.00 0.00 89 1024.1
20260509180112 51 309 0.0 0.9 0.00 0.00 0.00 89 1024.1
20260509180007 51 309 0.0 0.9 0.00 0.00 0.00 89 1024.0
20260509175901 51 309 0.0 0.9 0.00 0.00 0.00 89 1024.0
20260509175759 51 309 0.0 0.0 0.00 0.00 0.00 89 1023.9
20260509175659 51 309 0.0 0.0 0.00 0.00 0.00 89 1023.8
20260509175557 51 309 0.0 0.0 0.00 0.00 0.00 89 1023.8
20260509175501 51 309 0.0 0.0 0.00 0.00 0.00 89 1023.9
20260509175354 51 309 0.0 0.0 0.00 0.00 0.00 89 1023.9
20260509175252 51 309 0.0 0.0 0.00 0.00 0.00 89 1023.9
20260509175149 51 309 0.0 0.0 0.00 0.00 0.00 89 1024.0
20260509175041 51 309 0.0 0.0 0.00 0.00 0.00 89 1023.9
20260509174823 51 309 0.0 0.0 0.00 0.00 0.00 89 1023.9
20260509174714 51 309 0.0 0.0 0.00 0.00 0.00 89 1023.9
20260509174605 51 309 0.0 0.0 0.00 0.00 0.00 89 1023.9
20260509174457 51 309 0.0 0.0 0.00 0.00 0.00 89 1023.9
20260509174356 51 309 0.0 0.0 0.00 0.00 0.00 89 1023.9
20260509174154 51 309 0.0 0.0 0.00 0.00 0.00 89 1023.9
20260509174050 51 309 0.0 0.0 0.00 0.00 0.00 89 1024.0
20260509173952 51 309 0.0 0.9 0.00 0.00 0.00 89 1023.9
20260509173842 51 309 0.0 0.9 0.00 0.00 0.00 89 1023.9
20260509173732 51 309 0.0 0.9 0.00 0.00 0.00 89 1023.9
20260509173622 51 309 0.0 0.9 0.00 0.00 0.00 89 1023.9
20260509173512 51 309 0.0 0.9 0.00 0.00 0.00 89 1023.8
20260509173304 51 309 0.0 0.9 0.00 0.00 0.00 89 1023.8
20260509173149 51 309 0.0 0.9 0.00 0.00 0.00 89 1023.8
20260509173046 51 309 0.0 0.9 0.00 0.00 0.00 89 1023.6
20260509172944 51 309 0.0 0.9 0.00 0.00 0.00 89 1023.6
20260509172845 51 309 0.0 0.9 0.00 0.00 0.00 89 1023.5
20260509172734 51 309 0.0 0.9 0.00 0.00 0.00 89 1023.6
20260509172626 51 309 0.0 0.9 0.00 0.00 0.00 89 1023.6
20260509172522 52 309 0.0 0.9 0.00 0.00 0.00 89 1023.5
20260509172424 52 309 0.0 0.9 0.00 0.00 0.00 89 1023.6
20260509172314 52 309 0.0 0.9 0.00 0.00 0.00 89 1023.7
20260509172208 52 309 0.0 0.9 0.00 0.00 0.00 89 1023.6
20260509172057 52 309 0.0 0.0 0.00 0.00 0.00 89 1023.7
20260509172013 52 309 0.0 0.0 0.00 0.00 0.00 89 1023.6
20260509171948 52 309 0.0 0.0 0.00 0.00 0.00 89 1023.5
20260509171730 52 309 0.0 0.0 0.00 0.00 0.00 89 1023.5
20260509171622 52 309 0.0 0.0 0.00 0.00 0.00 89 1023.6
20260509171512 52 309 0.0 0.0 0.00 0.00 0.00 89 1023.7
20260509171402 52 309 0.0 0.0 0.00 0.00 0.00 89 1023.7
20260509171252 52 309 0.0 0.0 0.00 0.00 0.00 89 1023.6
20260509171142 52 309 0.0 0.0 0.00 0.00 0.00 89 1023.6
20260509171032 52 309 0.0 0.0 0.00 0.00 0.00 89 1023.7
20260509170928 52 309 0.0 0.0 0.00 0.00 0.00 89 1023.7
20260509170834 52 309 0.0 0.0 0.00 0.00 0.00 89 1023.7
20260509170720 52 309 0.0 0.0 0.00 0.00 0.00 89 1023.6
20260509170618 52 309 0.0 0.0 0.00 0.00 0.00 89 1023.6
20260509170517 52 309 0.0 0.0 0.00 0.00 0.00 89 1023.6
20260509170443 52 309 0.0 0.0 0.00 0.00 0.00 89 1023.7
20260509170312 52 309 0.0 0.0 0.00 0.00 0.00 89 1023.7
20260509170210 52 309 0.0 0.0 0.00 0.00 0.00 89 1023.6
20260509170108 52 309 0.0 0.0 0.00 0.00 0.00 89 1023.6
20260509165958 52 309 0.0 0.0 0.00 0.00 0.00 89 1023.6
20260509165848 52 309 0.0 0.9 0.00 0.00 0.00 89 1023.6
20260509165741 52 309 0.0 0.9 0.00 0.00 0.00 89 1023.6
20260509165627 52 309 0.0 0.9 0.00 0.00 0.00 89 1023.6
20260509165519 52 309 0.0 0.9 0.00 0.00 0.00 89 1023.7
20260509165414 52 309 0.0 0.9 0.00 0.00 0.00 89 1023.7
20260509165316 52 309 0.0 0.9 0.00 0.00 0.00 89 1023.6
20260509165206 52 309 0.0 0.9 0.00 0.00 0.00 89 1023.6
20260509165056 52 309 0.0 0.9 0.00 0.00 0.00 89 1023.6
20260509164945 52 309 0.0 0.9 0.00 0.00 0.00 89 1023.7
20260509164734 52 309 0.0 0.0 0.00 0.00 0.00 89 1023.6
20260509164630 52 309 0.0 0.0 0.00 0.00 0.00 89 1023.6
20260509164531 52 309 0.0 0.0 0.00 0.00 0.00 89 1023.6
20260509164420 52 309 0.0 0.0 0.00 0.00 0.00 89 1023.6
20260509164311 52 309 0.0 0.0 0.00 0.00 0.00 89 1023.7
20260509164208 52 309 0.0 0.0 0.00 0.00 0.00 89 1023.7
20260509164105 52 309 0.0 0.0 0.00 0.00 0.00 89 1023.6
20260509164004 52 309 0.0 0.0 0.00 0.00 0.00 89 1023.7
20260509163859 52 309 0.0 0.0 0.00 0.00 0.00 89 1023.6
20260509163759 52 309 0.0 0.0 0.00 0.00 0.00 89 1023.6
20260509163653 52 309 0.0 0.0 0.00 0.00 0.00 89 1023.6
20260509163540 52 309 0.0 0.0 0.00 0.00 0.00 89 1023.6
20260509163430 52 309 0.0 0.0 0.00 0.00 0.00 89 1023.7
20260509163321 52 309 0.0 0.0 0.00 0.00 0.00 89 1023.7
20260509163216 52 309 0.0 0.0 0.00 0.00 0.00 89 1023.7
20260509163100 52 309 0.0 0.0 0.00 0.00 0.00 89 1023.7
20260509162949 52 309 0.0 0.9 0.00 0.00 0.00 89 1023.8
20260509162840 52 309 0.0 1.7 0.00 0.00 0.00 89 1023.7
20260509162730 52 309 0.0 1.7 0.00 0.00 0.00 89 1023.7
20260509162628 52 309 0.0 1.7 0.00 0.00 0.00 89 1023.8
20260509162510 52 309 0.9 1.7 0.00 0.00 0.00 89 1023.8
20260509162400 52 309 0.9 1.7 0.00 0.00 0.00 89 1023.7
20260509162256 52 309 0.9 1.7 0.00 0.00 0.00 89 1023.8
20260509162159 52 309 0.9 1.7 0.00 0.00 0.00 89 1023.8
20260509162048 52 309 0.0 1.7 0.00 0.00 0.00 89 1023.8
20260509161938 52 309 0.0 1.7 0.00 0.00 0.00 89 1023.8
20260509161718 52 309 0.0 1.7 0.00 0.00 0.00 89 1023.8
20260509161617 52 309 0.0 1.7 0.00 0.00 0.00 89 1023.8
20260509161458 52 309 0.0 1.7 0.00 0.00 0.00 89 1023.7
20260509161348 52 309 0.0 1.7 0.00 0.00 0.00 89 1023.8
20260509161239 52 309 0.0 1.7 0.00 0.00 0.00 89 1023.9
20260509161136 52 309 0.0 1.7 0.00 0.00 0.00 89 1023.7
20260509161033 52 309 0.0 1.7 0.00 0.00 0.00 89 1023.8
20260509160932 52 309 0.0 1.7 0.00 0.00 0.00 89 1023.8
20260509160830 52 309 0.0 1.7 0.00 0.00 0.00 89 1023.8
20260509160726 52 309 0.0 1.7 0.00 0.00 0.00 89 1023.8
20260509160626 52 309 0.0 1.7 0.00 0.00 0.00 88 1023.8
20260509160525 52 13 0.0 1.7 0.00 0.00 0.00 88 1023.8
20260509160425 52 13 0.0 1.7 0.00 0.00 0.00 88 1023.8
20260509160200 52 13 0.0 1.7 0.00 0.00 0.00 88 1023.8
20260509160105 52 13 0.0 1.7 0.00 0.00 0.00 88 1023.8
20260509155940 52 13 0.0 1.7 0.00 0.00 0.00 88 1023.8
20260509155829 52 13 0.0 0.9 0.00 0.00 0.00 88 1023.8
20260509155720 52 255 0.0 0.0 0.00 0.00 0.00 88 1023.8
20260509155610 52 255 0.0 0.0 0.00 0.00 0.00 88 1023.9
20260509155459 52 255 0.0 0.0 0.00 0.00 0.00 88 1023.9
20260509155355 52 255 0.0 0.0 0.00 0.00 0.00 88 1024.0
20260509155254 52 255 0.0 0.0 0.00 0.00 0.00 88 1024.0
20260509155154 52 255 0.0 0.0 0.00 0.00 0.00 88 1023.8
20260509155043 52 255 0.0 0.0 0.00 0.00 0.00 88 1024.0
20260509154935 52 255 0.0 0.0 0.00 0.00 0.00 88 1023.9
20260509154733 52 255 0.0 0.0 0.00 0.00 0.00 88 1024.0
20260509154621 52 255 0.0 0.0 0.00 0.00 0.00 88 1024.0
20260509154519 52 255 0.0 0.0 0.00 0.00 0.00 88 1024.0
20260509154417 52 255 0.0 0.0 0.00 0.00 0.00 88 1024.1
20260509154316 52 255 0.0 0.0 0.00 0.00 0.00 88 1024.1
20260509154208 52 255 0.0 0.0 0.00 0.00 0.00 88 1024.1
20260509154058 52 255 0.0 0.0 0.00 0.00 0.00 88 1024.1
20260509153950 52 255 0.0 0.0 0.00 0.00 0.00 88 1024.1
20260509153836 52 255 0.0 0.0 0.00 0.00 0.00 88 1024.1
20260509153726 52 255 0.0 0.0 0.00 0.00 0.00 88 1024.0
20260509153623 52 255 0.0 0.0 0.00 0.00 0.00 88 1024.0
20260509153524 52 255 0.0 0.0 0.00 0.00 0.00 88 1024.0
20260509153413 52 255 0.0 0.0 0.00 0.00 0.00 87 1024.2
20260509153156 52 255 0.0 0.0 0.00 0.00 0.00 87 1024.0
20260509153046 52 255 0.0 0.0 0.00 0.00 0.00 87 1024.0
20260509152938 52 255 0.0 0.0 0.00 0.00 0.00 87 1024.0
20260509152825 52 255 0.0 0.0 0.00 0.00 0.00 87 1024.1
20260509152713 52 255 0.0 0.0 0.00 0.00 0.00 87 1024.1
20260509152604 52 255 0.0 0.0 0.00 0.00 0.00 87 1024.1
20260509152453 52 255 0.0 0.0 0.00 0.00 0.00 87 1024.1
20260509152345 52 255 0.0 0.0 0.00 0.00 0.00 87 1024.1
20260509152233 52 255 0.0 0.0 0.00 0.00 0.00 87 1024.1
20260509152124 52 255 0.0 0.0 0.00 0.00 0.00 87 1024.1
20260509152022 52 255 0.0 0.0 0.00 0.00 0.00 87 1024.1
20260509151926 52 255 0.0 0.0 0.00 0.00 0.00 87 1024.1
20260509151812 52 255 0.0 0.0 0.00 0.00 0.00 87 1024.1
20260509151709 52 255 0.0 0.0 0.00 0.00 0.00 87 1024.1
20260509151607 52 255 0.0 0.0 0.00 0.00 0.00 87 1024.0
20260509151506 52 255 0.0 0.0 0.00 0.00 0.00 87 1024.0
20260509151356 52 255 0.0 0.0 0.00 0.00 0.00 87 1024.1
20260509151245 52 255 0.0 0.0 0.00 0.00 0.00 87 1024.1
20260509151138 52 255 0.0 0.0 0.00 0.00 0.00 87 1024.1
20260509151055 52 255 0.0 0.0 0.00 0.00 0.00 87 1024.1
20260509150920 52 255 0.0 0.0 0.00 0.00 0.00 87 1024.1
20260509150807 52 255 0.0 0.0 0.00 0.00 0.00 87 1024.1
20260509150704 52 255 0.0 0.0 0.00 0.00 0.00 87 1024.1
20260509150600 52 255 0.0 0.0 0.00 0.00 0.00 87 1024.2
20260509150501 52 255 0.0 0.0 0.00 0.00 0.00 87 1024.1
20260509150403 52 255 0.0 0.0 0.00 0.00 0.00 87 1024.1
20260509150340 52 255 0.0 0.0 0.00 0.00 0.00 87 1024.0
20260509150125 52 255 0.0 0.0 0.00 0.00 0.00 87 1024.1
20260509150019 52 255 0.0 0.0 0.00 0.00 0.00 87 1024.1
20260509145918 52 255 0.0 0.0 0.00 0.00 0.00 87 1024.1
20260509145819 52 255 0.0 0.0 0.00 0.00 0.00 87 1024.1
20260509145707 52 255 0.0 0.0 0.00 0.00 0.00 87 1024.1
20260509145557 52 255 0.0 0.0 0.00 0.00 0.00 87 1024.1
20260509145448 52 255 0.0 0.0 0.00 0.00 0.00 87 1024.1
20260509145338 52 255 0.0 0.0 0.00 0.00 0.00 87 1024.2
20260509145228 52 255 0.0 0.0 0.00 0.00 0.00 87 1024.1
20260509145123 52 255 0.0 0.0 0.00 0.00 0.00 87 1024.1
20260509145010 52 255 0.0 0.0 0.00 0.00 0.00 87 1024.1
20260509144906 52 255 0.0 0.0 0.00 0.00 0.00 87 1024.1
20260509144806 52 255 0.0 0.0 0.00 0.00 0.00 87 1024.1
20260509144655 52 255 0.0 0.0 0.00 0.00 0.00 87 1024.1
20260509144546 52 255 0.0 0.0 0.00 0.00 0.00 87 1024.1
20260509144437 52 255 0.0 0.0 0.00 0.00 0.00 87 1024.1
20260509144326 52 255 0.0 0.0 0.00 0.00 0.00 87 1024.1
20260509144215 52 255 0.0 0.0 0.00 0.00 0.00 87 1024.2
20260509144113 52 255 0.0 0.0 0.00 0.00 0.00 87 1024.2
20260509144012 52 255 0.0 0.0 0.00 0.00 0.00 87 1024.2
20260509143910 52 255 0.0 0.9 0.00 0.00 0.00 87 1024.2
20260509143807 52 255 0.0 1.7 0.00 0.00 0.00 87 1024.2
20260509143705 52 255 0.0 1.7 0.00 0.00 0.00 87 1024.2
20260509143604 52 255 0.0 1.7 0.00 0.00 0.00 86 1024.2
20260509143501 52 255 0.0 1.7 0.00 0.00 0.00 86 1024.1
20260509143358 52 255 0.0 1.7 0.00 0.00 0.00 86 1024.1
20260509143259 52 255 0.0 1.7 0.00 0.00 0.00 87 1024.2
20260509143155 53 255 0.0 1.7 0.00 0.00 0.00 86 1024.2
20260509143055 53 255 0.0 1.7 0.00 0.00 0.00 87 1024.2
20260509142954 53 255 0.0 1.7 0.00 0.00 0.00 87 1024.2
20260509142844 53 255 0.0 1.7 0.00 0.00 0.00 86 1024.2
20260509142736 53 255 0.0 0.9 0.00 0.00 0.00 86 1024.2
20260509142637 53 255 0.0 0.0 0.00 0.00 0.00 86 1024.2
20260509142526 53 255 0.0 0.0 0.00 0.00 0.00 86 1024.2
20260509142416 53 255 0.0 0.0 0.00 0.00 0.00 86 1024.2
20260509142310 53 255 0.0 0.0 0.00 0.00 0.00 86 1024.2
20260509142155 53 255 0.0 0.0 0.00 0.00 0.00 86 1024.3
20260509142054 53 255 0.0 0.0 0.00 0.00 0.00 86 1024.3
20260509141950 53 255 0.0 0.0 0.00 0.00 0.00 86 1024.2
20260509141849 53 255 0.0 0.0 0.00 0.00 0.00 86 1024.3
20260509141748 53 255 0.0 0.0 0.00 0.00 0.00 86 1024.3
20260509141646 53 255 0.0 0.0 0.00 0.00 0.00 86 1024.2
20260509141536 53 255 0.0 0.0 0.00 0.00 0.00 86 1024.2
20260509141426 53 255 0.0 0.0 0.00 0.00 0.00 86 1024.2
20260509141315 53 255 0.0 0.0 0.00 0.00 0.00 86 1024.2
20260509141214 53 255 0.0 0.0 0.00 0.00 0.00 86 1024.2
20260509141112 53 255 0.0 0.0 0.00 0.00 0.00 86 1024.2
20260509141010 53 255 0.0 0.0 0.00 0.00 0.00 86 1024.2
20260509140900 53 255 0.0 0.0 0.00 0.00 0.00 86 1024.3
20260509140750 53 255 0.0 0.0 0.00 0.00 0.00 86 1024.2
20260509140639 53 255 0.0 0.0 0.00 0.00 0.00 86 1024.3
20260509140530 53 255 0.0 0.0 0.00 0.00 0.00 86 1024.3
20260509140420 53 255 0.0 0.0 0.00 0.00 0.00 86 1024.3
20260509140310 53 255 0.0 0.0 0.00 0.00 0.00 86 1024.3
20260509140213 53 255 0.0 0.0 0.00 0.00 0.00 86 1024.3
20260509140108 53 255 0.0 0.0 0.00 0.00 0.00 86 1024.4
20260509140002 53 255 0.0 0.0 0.00 0.00 0.00 86 1024.3
20260509135853 53 255 0.0 0.0 0.00 0.00 0.00 86 1024.3
20260509135749 53 255 0.0 0.0 0.00 0.00 0.00 86 1024.3
20260509135648 53 255 0.0 0.0 0.00 0.00 0.00 86 1024.3
20260509135546 53 255 0.0 0.0 0.00 0.00 0.00 86 1024.4
20260509135437 53 255 0.0 0.0 0.00 0.00 0.00 86 1024.4
20260509135326 53 255 0.0 0.0 0.00 0.00 0.00 86 1024.3
20260509135217 53 255 0.0 0.0 0.00 0.00 0.00 86 1024.4
20260509135111 53 255 0.0 0.9 0.00 0.00 0.00 86 1024.4
20260509134956 53 255 0.0 0.9 0.00 0.00 0.00 86 1024.5
20260509134845 53 255 0.0 1.7 0.00 0.00 0.00 86 1024.4
20260509134737 53 255 0.0 1.7 0.00 0.00 0.00 86 1024.4
20260509134607 53 255 0.0 1.7 0.00 0.00 0.00 86 1024.5
20260509134508 53 255 0.0 1.7 0.00 0.00 0.00 86 1024.5
20260509134358 53 255 0.0 1.7 0.00 0.00 0.00 86 1024.3
20260509134247 53 255 0.0 1.7 0.00 0.00 0.00 86 1024.3
20260509134138 53 255 0.0 1.7 0.00 0.00 0.00 85 1024.3
20260509134039 53 255 0.0 1.7 0.00 0.00 0.00 85 1024.2
20260509133919 53 255 0.0 1.7 0.00 0.00 0.00 85 1024.3
20260509133816 53 255 0.0 1.7 0.00 0.00 0.00 85 1024.3
20260509133712 53 255 0.0 1.7 0.00 0.00 0.00 85 1024.2
20260509133612 53 255 0.0 1.7 0.00 0.00 0.00 85 1024.2
20260509133508 53 255 0.0 1.7 0.00 0.00 0.00 85 1024.3
20260509133351 53 255 0.0 1.7 0.00 0.00 0.00 85 1024.3
20260509133243 53 255 0.0 1.7 0.00 0.00 0.00 85 1024.3
20260509132929 53 255 0.0 1.7 0.00 0.00 0.00 85 1024.2
20260509132819 53 255 0.0 1.7 0.00 0.00 0.00 85 1024.2
20260509132718 53 255 0.0 1.7 0.00 0.00 0.00 85 1024.2
20260509132614 53 255 0.0 1.7 0.00 0.00 0.00 85 1024.2
20260509132519 54 255 0.0 0.0 0.00 0.00 0.00 85 1024.2
20260509132403 54 255 0.0 0.0 0.00 0.00 0.00 85 1024.2
20260509132253 54 255 0.0 0.0 0.00 0.00 0.00 85 1024.2
20260509132152 54 255 0.0 0.0 0.00 0.00 0.00 85 1024.2
20260509132050 54 255 0.0 0.0 0.00 0.00 0.00 85 1024.3
20260509131954 54 255 0.0 0.0 0.00 0.00 0.00 85 1024.7
20260509131838 54 255 0.0 0.0 0.00 0.00 0.00 85 1024.1
20260509131735 54 255 0.0 0.0 0.00 0.00 0.00 85 1024.2
20260509131634 54 255 0.0 0.0 0.00 0.00 0.00 85 1024.2
20260509131532 54 255 0.0 0.0 0.00 0.00 0.00 85 1024.3
20260509131429 54 255 0.0 0.0 0.00 0.00 0.00 85 1024.2
20260509131327 54 255 0.0 0.0 0.00 0.00 0.00 85 1024.4
20260509131218 54 255 0.0 0.0 0.00 0.00 0.00 84 1024.3
20260509131107 54 255 0.0 0.0 0.00 0.00 0.00 84 1024.3
20260509130958 54 255 0.0 0.0 0.00 0.00 0.00 84 1024.3
20260509130849 54 255 0.0 0.0 0.00 0.00 0.00 84 1024.3
20260509130738 54 255 0.0 0.0 0.00 0.00 0.00 84 1024.3
20260509130628 54 255 0.0 0.0 0.00 0.00 0.00 84 1024.3
20260509130518 54 255 0.0 0.0 0.00 0.00 0.00 84 1024.3
20260509130423 54 255 0.0 0.0 0.00 0.00 0.00 84 1024.2
20260509130258 54 255 0.0 0.0 0.00 0.00 0.00 84 1024.3
20260509130220 54 255 0.0 0.0 0.00 0.00 0.00 84 1024.3
20260509130159 54 255 0.0 0.0 0.00 0.00 0.00 84 1024.3
20260509125953 54 255 0.0 0.0 0.00 0.00 0.00 84 1024.3
20260509125851 54 255 0.0 0.0 0.00 0.00 0.00 84 1024.3
20260509125747 54 255 0.0 0.0 0.00 0.00 0.00 84 1024.2
20260509125638 54 255 0.0 0.0 0.00 0.00 0.00 84 1024.2
20260509125528 54 255 0.0 0.0 0.00 0.00 0.00 84 1024.2
20260509125418 54 255 0.0 0.0 0.00 0.00 0.00 84 1024.2
20260509125308 54 255 0.0 0.0 0.00 0.00 0.00 84 1024.2
20260509125157 54 255 0.0 0.0 0.00 0.00 0.00 84 1024.3
20260509125048 54 255 0.0 0.0 0.00 0.00 0.00 84 1024.2
20260509124946 54 255 0.0 0.0 0.00 0.00 0.00 83 1024.2
20260509124844 54 255 0.0 0.0 0.00 0.00 0.00 83 1024.2
20260509124742 54 255 0.0 0.0 0.00 0.00 0.00 83 1024.3
20260509124635 54 255 0.0 0.0 0.00 0.00 0.00 83 1024.2
20260509124522 54 255 0.0 0.0 0.00 0.00 0.00 83 1024.2
20260509124413 55 255 0.0 0.0 0.00 0.00 0.00 83 1024.2
20260509124314 55 255 0.0 0.0 0.00 0.00 0.00 83 1024.2
20260509124212 55 255 0.0 0.0 0.00 0.00 0.00 83 1024.2
20260509124111 55 255 0.0 0.0 0.00 0.00 0.00 83 1024.2
20260509124010 55 255 0.0 0.0 0.00 0.00 0.00 83 1024.3
20260509123900 55 255 0.0 0.0 0.00 0.00 0.00 83 1024.3
20260509123750 55 255 0.0 0.0 0.00 0.00 0.00 83 1024.3
20260509123639 55 255 0.0 0.0 0.00 0.00 0.00 83 1024.3
20260509123530 55 255 0.0 0.0 0.00 0.00 0.00 83 1024.4
20260509123419 55 255 0.0 0.0 0.00 0.00 0.00 83 1024.4
20260509123309 55 255 0.0 0.0 0.00 0.00 0.00 83 1024.4
20260509123208 55 255 0.0 0.0 0.00 0.00 0.00 83 1024.4
20260509123104 55 255 0.0 0.0 0.00 0.00 0.00 83 1024.3
20260509123005 55 255 0.0 0.0 0.00 0.00 0.00 83 1024.5
20260509122854 55 255 0.0 0.0 0.00 0.00 0.00 83 1024.3
20260509122750 55 255 0.0 0.0 0.00 0.00 0.00 83 1024.4
20260509122651 55 255 0.0 0.0 0.00 0.00 0.00 83 1024.3
20260509122542 55 255 0.0 0.0 0.00 0.00 0.00 83 1024.4
20260509122431 55 255 0.0 0.0 0.00 0.00 0.00 83 1024.5
20260509122325 55 255 0.0 0.0 0.00 0.00 0.00 83 1024.3
20260509122212 55 255 0.0 0.0 0.00 0.00 0.00 83 1024.3
20260509122102 55 255 0.0 0.0 0.00 0.00 0.00 82 1024.3
20260509122000 55 255 0.0 0.0 0.00 0.00 0.00 82 1024.3
20260509121856 55 255 0.0 0.0 0.00 0.00 0.00 82 1024.3
20260509121801 55 255 0.0 0.0 0.00 0.00 0.00 82 1024.3
20260509121646 55 255 0.0 0.0 0.00 0.00 0.00 82 1024.4
20260509121425 55 255 0.0 0.0 0.00 0.00 0.00 82 1024.5
20260509121316 55 255 0.0 0.0 0.00 0.00 0.00 82 1024.3
20260509121211 56 255 0.0 0.0 0.00 0.00 0.00 82 1024.3
20260509121114 55 255 0.0 0.0 0.00 0.00 0.00 82 1024.4
20260509120854 56 255 0.0 0.0 0.00 0.00 0.00 82 1024.4
20260509120751 56 255 0.0 0.0 0.00 0.00 0.00 82 1024.4
20260509120648 56 255 0.0 0.0 0.00 0.00 0.00 82 1024.4
20260509120548 56 255 0.0 0.0 0.00 0.00 0.00 82 1024.5
20260509120438 56 255 0.0 0.0 0.00 0.00 0.00 82 1024.4
20260509120327 56 255 0.0 0.0 0.00 0.00 0.00 82 1024.5
20260509120217 56 255 0.0 0.0 0.00 0.00 0.00 82 1024.4
20260509120108 56 255 0.0 0.0 0.00 0.00 0.00 82 1024.3
20260509115958 56 255 0.0 0.0 0.00 0.00 0.00 82 1024.4
20260509115856 56 255 0.0 0.0 0.00 0.00 0.00 82 1024.4
20260509115752 56 255 0.0 0.9 0.00 0.00 0.00 82 1024.4
20260509115654 56 255 0.0 0.9 0.00 0.00 0.00 82 1024.4
20260509115543 56 255 0.0 0.9 0.00 0.00 0.00 82 1024.5
20260509115440 56 255 0.0 0.9 0.00 0.00 0.00 82 1024.5
20260509115340 56 255 0.0 0.9 0.00 0.00 0.00 82 1024.3
20260509115234 56 255 0.0 0.9 0.00 0.00 0.00 82 1024.4
20260509115120 56 255 0.0 0.9 0.00 0.00 0.00 82 1024.5
20260509115009 56 255 0.0 0.9 0.00 0.00 0.00 82 1024.5
20260509114902 56 255 0.0 0.9 0.00 0.00 0.00 82 1024.5
20260509114750 56 255 0.0 0.0 0.00 0.00 0.00 82 1024.5
20260509114640 56 255 0.0 0.0 0.00 0.00 0.00 82 1024.5
20260509114536 56 255 0.0 0.0 0.00 0.00 0.00 82 1024.5
20260509114433 56 255 0.0 0.0 0.00 0.00 0.00 82 1024.6
20260509114334 56 255 0.0 0.0 0.00 0.00 0.00 82 1024.5
20260509114231 56 255 0.0 0.0 0.00 0.00 0.00 81 1024.6
20260509114128 56 255 0.0 0.0 0.00 0.00 0.00 81 1024.6
20260509114027 56 255 0.0 0.0 0.00 0.00 0.00 81 1024.5
20260509113907 56 255 0.0 0.0 0.00 0.00 0.00 81 1024.6
20260509113832 56 255 0.0 0.0 0.00 0.00 0.00 81 1024.5
20260509113648 56 255 0.0 0.0 0.00 0.00 0.00 81 1024.6
20260509113538 56 255 0.0 0.0 0.00 0.00 0.00 81 1024.5
20260509113428 57 255 0.0 0.0 0.00 0.00 0.00 81 1024.6
20260509113318 57 255 0.0 0.0 0.00 0.00 0.00 81 1024.6
20260509113212 57 255 0.0 0.0 0.00 0.00 0.00 81 1024.6
20260509113134 57 255 0.0 0.0 0.00 0.00 0.00 81 1024.6
20260509112948 57 255 0.0 0.0 0.00 0.00 0.00 81 1024.5
20260509112839 57 255 0.0 0.0 0.00 0.00 0.00 81 1024.6
20260509112728 57 255 0.0 0.0 0.00 0.00 0.00 81 1024.6
20260509112618 57 255 0.0 0.0 0.00 0.00 0.00 81 1024.6
20260509112514 57 255 0.0 0.0 0.00 0.00 0.00 81 1024.6
20260509112415 57 255 0.0 0.0 0.00 0.00 0.00 81 1024.5
20260509112334 57 255 0.0 0.0 0.00 0.00 0.00 81 1024.6
20260509112200 57 255 0.0 0.0 0.00 0.00 0.00 81 1024.6
20260509112045 57 255 0.0 0.0 0.00 0.00 0.00 81 1024.5
20260509111935 57 255 0.0 0.0 0.00 0.00 0.00 80 1024.5
20260509111828 57 255 0.0 0.0 0.00 0.00 0.00 80 1024.6
20260509111716 57 255 0.0 0.0 0.00 0.00 0.00 80 1024.5
20260509111635 57 255 0.0 0.0 0.00 0.00 0.00 80 1024.6
20260509111456 57 255 0.0 0.0 0.00 0.00 0.00 80 1024.5
20260509111346 57 255 0.0 0.0 0.00 0.00 0.00 80 1024.5
20260509111235 57 255 0.0 0.0 0.00 0.00 0.00 80 1024.5
20260509111126 57 255 0.0 0.0 0.00 0.00 0.00 80 1024.5
20260509111016 57 255 0.0 0.0 0.00 0.00 0.00 80 1024.5
20260509110914 57 255 0.0 0.0 0.00 0.00 0.00 80 1024.5
20260509110814 57 255 0.0 0.0 0.00 0.00 0.00 80 1024.5
20260509110704 57 255 0.0 0.0 0.00 0.00 0.00 80 1024.5
20260509110554 57 255 0.0 0.0 0.00 0.00 0.00 80 1024.6
20260509110444 57 255 0.0 0.0 0.00 0.00 0.00 80 1024.6
20260509110334 58 255 0.0 0.0 0.00 0.00 0.00 80 1024.5
20260509110224 58 255 0.0 0.0 0.00 0.00 0.00 80 1024.3
20260509110114 58 255 0.0 0.0 0.00 0.00 0.00 80 1024.4
20260509110012 58 255 0.0 0.0 0.00 0.00 0.00 80 1024.4
20260509105908 58 255 0.0 0.9 0.00 0.00 0.00 80 1024.4
20260509105808 58 255 0.0 0.9 0.00 0.00 0.00 80 1024.4
20260509105659 58 255 0.0 0.9 0.00 0.00 0.00 80 1024.5
20260509105548 58 255 0.0 0.9 0.00 0.00 0.00 80 1024.4
20260509105437 58 255 0.0 0.9 0.00 0.00 0.00 79 1024.4
20260509105335 58 255 0.0 0.9 0.00 0.00 0.00 79 1024.3
20260509105235 58 255 0.0 0.9 0.00 0.00 0.00 79 1024.5
20260509105130 58 255 0.0 0.9 0.00 0.00 0.00 79 1024.5
20260509105017 58 255 0.0 0.9 0.00 0.00 0.00 79 1024.4
20260509104906 58 255 0.0 0.0 0.00 0.00 0.00 79 1024.4
20260509104802 58 255 0.0 0.0 0.00 0.00 0.00 79 1024.4
20260509104700 58 255 0.0 0.0 0.00 0.00 0.00 79 1024.4
20260509104603 58 255 0.0 0.0 0.00 0.00 0.00 79 1024.4
20260509104450 58 255 0.0 0.0 0.00 0.00 0.00 79 1024.4
20260509104340 58 255 0.0 0.0 0.00 0.00 0.00 79 1024.4
20260509104230 58 255 0.0 0.0 0.00 0.00 0.00 79 1024.4
20260509104120 58 255 0.0 0.0 0.00 0.00 0.00 78 1024.4
20260509104010 58 255 0.0 0.9 0.00 0.00 0.00 79 1024.4
20260509103902 58 255 0.0 1.7 0.00 0.00 0.00 79 1024.4
20260509103757 58 255 0.0 1.7 0.00 0.00 0.00 79 1024.5
20260509103705 58 255 0.0 1.7 0.00 0.00 0.00 79 1024.4
20260509103557 58 255 0.0 1.7 0.00 0.00 0.00 79 1024.4
20260509103454 58 255 0.0 1.7 0.00 0.00 0.00 79 1024.4
20260509103355 59 255 0.0 1.7 0.00 0.00 0.00 79 1024.4
20260509103244 59 255 0.0 1.7 0.00 0.00 0.00 79 1024.3
20260509103134 59 255 0.0 1.7 0.00 0.00 0.00 78 1024.2
20260509102928 59 255 0.0 0.0 0.00 0.00 0.00 78 1024.4
20260509102826 59 255 0.0 0.0 0.00 0.00 0.00 78 1024.3
20260509102716 59 255 0.0 0.0 0.00 0.00 0.00 78 1024.3
20260509102604 59 255 0.0 0.0 0.00 0.00 0.00 78 1024.3
20260509102454 59 255 0.0 0.0 0.00 0.00 0.00 78 1024.4
20260509102344 59 255 0.0 0.0 0.00 0.00 0.00 78 1024.4
20260509102241 59 255 0.0 0.0 0.00 0.00 0.00 78 1024.3
20260509102142 59 255 0.0 0.0 0.00 0.00 0.00 78 1024.2
20260509102049 59 255 0.0 0.0 0.00 0.00 0.00 77 1024.3
20260509101924 59 255 0.0 0.0 0.00 0.00 0.00 77 1024.4
20260509101815 59 255 0.0 0.0 0.00 0.00 0.00 77 1024.3
20260509101706 59 255 0.0 0.0 0.00 0.00 0.00 77 1024.3
20260509101630 59 255 0.0 0.0 0.00 0.00 0.00 77 1024.2
20260509101444 59 255 0.0 0.0 0.00 0.00 0.00 77 1024.3
20260509101346 59 255 0.0 0.0 0.00 0.00 0.00 77 1024.2
20260509101226 60 255 0.0 0.0 0.00 0.00 0.00 77 1024.1
20260509101117 60 255 0.0 0.0 0.00 0.00 0.00 77 1024.2
20260509101011 60 255 0.0 0.0 0.00 0.00 0.00 76 1024.1
20260509100907 60 255 0.0 0.0 0.00 0.00 0.00 76 1024.1
20260509100805 60 255 0.0 0.0 0.00 0.00 0.00 76 1024.2
20260509100705 60 255 0.0 0.0 0.00 0.00 0.00 76 1024.0
20260509100602 60 255 0.0 0.0 0.00 0.00 0.00 76 1024.0
20260509100518 60 255 0.0 0.0 0.00 0.00 0.00 76 1024.0
20260509100352 60 255 0.0 0.0 0.00 0.00 0.00 76 1024.1
20260509100242 60 255 0.0 0.0 0.00 0.00 0.00 76 1024.0
20260509100133 60 255 0.0 0.0 0.00 0.00 0.00 76 1024.1
20260509095926 60 255 0.0 0.0 0.00 0.00 0.00 76 1024.0
20260509095810 60 255 0.0 0.0 0.00 0.00 0.00 76 1024.0
20260509095654 60 255 0.0 0.0 0.00 0.00 0.00 76 1024.0
20260509095542 60 255 0.0 0.0 0.00 0.00 0.00 75 1024.0
20260509095433 60 255 0.0 0.0 0.00 0.00 0.00 76 1024.0
20260509095331 60 255 0.0 0.0 0.00 0.00 0.00 75 1023.9
20260509095228 60 255 0.0 0.0 0.00 0.00 0.00 75 1023.9
20260509095128 60 255 0.0 0.0 0.00 0.00 0.00 75 1023.9
20260509095019 60 255 0.0 0.0 0.00 0.00 0.00 75 1023.9
20260509094917 60 255 0.0 0.0 0.00 0.00 0.00 75 1023.9
20260509094816 60 255 0.0 0.0 0.00 0.00 0.00 75 1024.0
20260509094714 60 255 0.0 0.0 0.00 0.00 0.00 75 1024.0
20260509094610 60 255 0.0 0.0 0.00 0.00 0.00 75 1023.9
20260509094400 61 255 0.0 0.0 0.00 0.00 0.00 75 1023.9
20260509094255 61 255 0.0 0.0 0.00 0.00 0.00 75 1023.9
20260509094148 61 255 0.0 0.0 0.00 0.00 0.00 75 1023.9
20260509094037 61 255 0.0 0.0 0.00 0.00 0.00 75 1023.9
20260509093933 61 255 0.0 1.7 0.00 0.00 0.00 75 1023.9
20260509093822 61 255 0.0 1.7 0.00 0.00 0.00 75 1023.9
20260509093713 61 255 0.0 1.7 0.00 0.00 0.00 75 1023.8
20260509093607 61 255 0.0 1.7 0.00 0.00 0.00 75 1023.8
20260509093510 61 255 0.0 1.7 0.00 0.00 0.00 75 1023.8
20260509093401 61 255 0.0 1.7 0.00 0.00 0.00 74 1023.8
20260509093252 61 255 0.0 1.7 0.00 0.00 0.00 74 1023.9
20260509093143 61 255 0.0 1.7 0.00 0.00 0.00 74 1023.9
20260509093041 61 255 0.0 1.7 0.00 0.00 0.00 74 1024.0
20260509092939 61 255 0.0 0.0 0.00 0.00 0.00 74 1023.9
20260509092837 61 255 0.0 0.0 0.00 0.00 0.00 74 1023.9
20260509092731 61 255 0.0 0.0 0.00 0.00 0.00 74 1023.9
20260509092623 61 255 0.0 0.0 0.00 0.00 0.00 74 1023.9
20260509092513 61 255 0.0 0.0 0.00 0.00 0.00 73 1023.8
20260509092406 61 255 0.0 0.0 0.00 0.00 0.00 73 1023.9
20260509092253 61 255 0.0 0.0 0.00 0.00 0.00 73 1023.9
20260509092142 61 255 0.0 0.0 0.00 0.00 0.00 74 1023.8
20260509092037 61 255 0.0 0.0 0.00 0.00 0.00 74 1023.8
20260509091939 61 255 0.0 0.0 0.00 0.00 0.00 74 1023.9
20260509091831 62 255 0.0 1.7 0.00 0.00 0.00 74 1023.8
20260509091727 62 255 0.0 1.7 0.00 0.00 0.00 73 1023.8
20260509091627 62 255 0.0 1.7 0.00 0.00 0.00 73 1023.8
20260509091525 62 255 0.0 1.7 0.00 0.00 0.00 73 1023.8
20260509091416 62 255 0.0 1.7 0.00 0.00 0.00 74 1023.7
20260509091309 62 255 0.0 1.7 0.00 0.00 0.00 73 1023.7
20260509091159 62 255 0.0 1.7 0.00 0.00 0.00 74 1023.7
20260509091049 62 255 0.0 1.7 0.00 0.00 0.00 73 1023.7
20260509090941 62 255 0.0 1.7 0.00 0.00 0.00 73 1023.8
20260509090835 62 255 0.0 1.7 0.00 0.00 0.00 73 1023.7
20260509090727 62 255 0.0 1.7 0.00 0.00 0.00 73 1023.6
20260509090614 62 255 0.0 1.7 0.00 0.00 0.00 73 1023.6
20260509090510 62 255 0.0 1.7 0.00 0.00 0.00 73 1023.6
20260509090410 62 255 0.0 1.7 0.00 0.00 0.00 73 1023.6
20260509090306 62 255 0.0 1.7 0.00 0.00 0.00 73 1023.6
20260509090159 62 255 0.0 1.7 0.00 0.00 0.00 73 1023.5
20260509090123 62 255 0.9 2.6 0.00 0.00 0.00 73 1023.6
20260509090100 62 255 0.9 2.6 0.00 0.00 0.00 73 1023.5
20260509085851 62 255 0.9 2.6 0.00 0.00 0.00 73 1023.6
20260509085751 62 255 0.0 2.6 0.00 0.00 0.00 73 1023.3
20260509085649 62 255 0.0 2.6 0.00 0.00 0.00 72 1023.4
20260509085539 62 255 0.0 2.6 0.00 0.00 0.00 72 1023.3
20260509085430 62 255 0.0 2.6 0.00 0.00 0.00 72 1023.4
20260509085326 62 255 0.0 2.6 0.00 0.00 0.00 72 1023.4
20260509085223 62 255 0.0 2.6 0.00 0.00 0.00 72 1023.3
20260509085123 62 255 0.0 2.6 0.00 0.00 0.00 71 1023.3
20260509085019 62 255 0.0 0.0 0.00 0.00 0.00 71 1023.4
20260509084908 62 255 0.0 0.0 0.00 0.00 0.00 71 1023.4
20260509084805 62 255 0.0 0.0 0.00 0.00 0.00 71 1023.2
20260509084708 63 255 0.0 0.0 0.00 0.00 0.00 71 1023.2
20260509084558 63 255 0.0 0.0 0.00 0.00 0.00 70 1023.3
20260509084458 63 255 0.0 0.0 0.00 0.00 0.00 70 1023.3
20260509084357 63 255 0.0 0.0 0.00 0.00 0.00 70 1023.2
20260509084247 63 255 0.0 0.9 0.00 0.00 0.00 71 1023.3
20260509084140 63 255 0.0 1.7 0.00 0.00 0.00 70 1023.3
20260509084026 63 255 0.0 1.7 0.00 0.00 0.00 70 1023.2
20260509083917 63 255 0.0 1.7 0.00 0.00 0.00 70 1023.3
20260509083807 63 255 0.0 2.6 0.00 0.00 0.00 70 1023.2
20260509083659 63 255 0.0 2.6 0.00 0.00 0.00 70 1023.2
20260509083555 63 255 0.0 2.6 0.00 0.00 0.00 70 1023.3
20260509083453 63 255 0.0 2.6 0.00 0.00 0.00 70 1023.3
20260509083350 63 255 0.0 2.6 0.00 0.00 0.00 70 1023.3
20260509083250 63 255 0.0 2.6 0.00 0.00 0.00 69 1023.3
20260509083150 63 261 0.0 2.6 0.00 0.00 0.00 69 1023.2
20260509083040 63 261 0.0 2.6 0.00 0.00 0.00 69 1023.2
20260509082821 64 273 0.0 1.7 0.00 0.00 0.00 68 1023.2
20260509082719 64 119 0.0 1.7 0.00 0.00 0.00 68 1023.2
20260509082620 64 119 0.0 1.7 0.00 0.00 0.00 68 1023.3
20260509082516 64 119 0.0 1.7 0.00 0.00 0.00 68 1023.2
20260509082404 64 119 0.0 1.7 0.00 0.00 0.00 68 1023.2
20260509082255 64 119 0.0 1.7 0.00 0.00 0.00 68 1023.2
20260509082145 64 119 0.0 0.9 0.00 0.00 0.00 68 1023.3
20260509082035 64 119 0.0 0.0 0.00 0.00 0.00 68 1023.2
20260509081930 64 119 0.0 0.0 0.00 0.00 0.00 68 1023.2
20260509081833 64 119 0.0 0.0 0.00 0.00 0.00 67 1023.0
20260509081722 64 119 0.0 0.0 0.00 0.00 0.00 67 1023.0
20260509081615 64 119 0.0 0.0 0.00 0.00 0.00 67 1022.9
20260509081504 65 119 0.0 0.0 0.00 0.00 0.00 67 1023.0
20260509081353 65 119 0.0 0.0 0.00 0.00 0.00 67 1022.9
20260509081243 65 119 0.0 0.0 0.00 0.00 0.00 67 1023.0
20260509081142 65 119 0.0 0.0 0.00 0.00 0.00 67 1023.0
20260509081039 65 119 0.0 0.0 0.00 0.00 0.00 67 1023.0
20260509080937 65 119 0.0 0.0 0.00 0.00 0.00 67 1022.9
20260509080829 65 119 0.0 0.0 0.00 0.00 0.00 67 1022.9
20260509080729 65 119 0.0 0.0 0.00 0.00 0.00 67 1022.9
20260509080630 65 119 0.0 0.0 0.00 0.00 0.00 67 1023.0
20260509080518 65 119 0.0 0.0 0.00 0.00 0.00 66 1023.0
20260509080413 65 119 0.0 0.0 0.00 0.00 0.00 66 1023.0
20260509080315 65 119 0.0 0.0 0.00 0.00 0.00 66 1023.0
20260509080205 65 119 0.0 0.0 0.00 0.00 0.00 65 1022.9
20260509080111 66 119 0.0 0.0 0.00 0.00 0.00 65 1023.0
20260509075944 66 119 0.0 0.0 0.00 0.00 0.00 65 1022.9
20260509075843 66 119 0.0 0.0 0.00 0.00 0.00 65 1022.9
20260509075741 66 119 0.0 0.0 0.00 0.00 0.00 65 1023.0
20260509075639 66 119 0.0 0.0 0.00 0.00 0.00 64 1023.0
20260509075535 66 119 0.0 0.0 0.00 0.00 0.00 64 1023.0
20260509075415 66 119 0.0 0.0 0.00 0.00 0.00 64 1022.9
20260509075306 66 119 0.0 0.0 0.00 0.00 0.00 64 1023.0
20260509075157 66 119 0.0 0.0 0.00 0.00 0.00 64 1023.0
20260509075106 66 119 0.0 0.0 0.00 0.00 0.00 64 1023.0
20260509075011 66 119 0.0 1.7 0.00 0.00 0.00 64 1022.9
20260509074856 67 119 0.0 1.7 0.00 0.00 0.00 63 1022.9
20260509074755 67 119 0.0 1.7 0.00 0.00 0.00 63 1022.9
20260509074649 67 119 0.0 1.7 0.00 0.00 0.00 62 1022.9
20260509074547 67 119 0.0 1.7 0.00 0.00 0.00 63 1023.0
20260509074447 67 119 0.0 1.7 0.00 0.00 0.00 63 1022.9
20260509074334 67 119 0.0 1.7 0.00 0.00 0.00 62 1022.9
20260509074226 67 119 0.0 1.7 0.00 0.00 0.00 62 1022.9
20260509074115 67 119 0.0 1.7 0.00 0.00 0.00 62 1022.8
20260509074014 67 119 0.0 0.0 0.00 0.00 0.00 62 1022.8
20260509073854 68 119 0.0 0.0 0.00 0.00 0.00 61 1022.8
20260509073745 68 119 0.0 0.0 0.00 0.00 0.00 61 1022.7
20260509073637 68 119 0.0 0.0 0.00 0.00 0.00 60 1022.8
20260509073538 68 119 0.0 0.0 0.00 0.00 0.00 60 1022.7
20260509073439 68 119 0.0 0.0 0.00 0.00 0.00 60 1022.7
20260509073335 68 119 0.0 0.0 0.00 0.00 0.00 60 1022.7
20260509073237 68 119 0.0 0.0 0.00 0.00 0.00 59 1022.7
20260509073132 68 119 0.0 0.0 0.00 0.00 0.00 59 1022.7
20260509073029 69 119 0.0 0.0 0.00 0.00 0.00 59 1022.7
20260509072926 69 119 0.0 0.0 0.00 0.00 0.00 59 1022.7
20260509072822 69 119 0.0 0.0 0.00 0.00 0.00 59 1022.7
20260509072703 69 119 0.0 0.0 0.00 0.00 0.00 58 1022.6
20260509072552 69 119 0.0 0.0 0.00 0.00 0.00 59 1022.6
20260509072446 69 119 0.0 0.0 0.00 0.00 0.00 59 1022.7
20260509072333 69 119 0.0 0.0 0.00 0.00 0.00 59 1022.6
20260509072231 69 119 0.0 0.0 0.00 0.00 0.00 59 1022.6
20260509072127 69 119 0.0 0.0 0.00 0.00 0.00 59 1022.7
20260509072028 70 119 0.0 0.0 0.00 0.00 0.00 58 1022.6
20260509071921 70 119 0.0 0.0 0.00 0.00 0.00 59 1022.6
20260509071813 70 119 0.0 0.0 0.00 0.00 0.00 58 1022.6
20260509071715 70 119 0.0 0.0 0.00 0.00 0.00 58 1022.6
20260509071607 70 119 0.0 0.0 0.00 0.00 0.00 57 1022.6
20260509071532 70 119 0.0 0.0 0.00 0.00 0.00 58 1022.5
20260509071450 70 119 0.0 0.0 0.00 0.00 0.00 57 1022.6
20260509071235 70 119 0.0 0.0 0.00 0.00 0.00 57 1022.6
20260509071125 70 119 0.0 0.0 0.00 0.00 0.00 57 1022.5
20260509071022 71 119 0.0 0.0 0.00 0.00 0.00 57 1022.5
20260509070919 71 119 0.0 0.0 0.00 0.00 0.00 56 1022.6
20260509070820 71 119 0.0 0.0 0.00 0.00 0.00 56 1022.4
20260509070709 71 119 0.0 0.0 0.00 0.00 0.00 56 1022.4
20260509070601 71 119 0.0 0.0 0.00 0.00 0.00 56 1022.4
20260509070449 71 119 0.0 0.0 0.00 0.00 0.00 55 1022.4
20260509070342 71 119 0.0 0.0 0.00 0.00 0.00 56 1022.3
20260509070237 71 119 0.0 0.0 0.00 0.00 0.00 56 1022.3
20260509070137 71 119 0.0 0.0 0.00 0.00 0.00 55 1022.4
20260509070028 71 119 0.0 0.0 0.00 0.00 0.00 55 1022.3
20260509065917 71 119 0.0 0.0 0.00 0.00 0.00 55 1022.2
20260509065807 71 119 0.0 0.0 0.00 0.00 0.00 54 1022.2
20260509065657 71 119 0.0 0.0 0.00 0.00 0.00 54 1022.1
20260509065546 71 119 0.0 0.0 0.00 0.00 0.00 54 1022.2
20260509065437 72 119 0.0 0.0 0.00 0.00 0.00 54 1022.2
20260509065335 72 119 0.0 0.0 0.00 0.00 0.00 54 1022.1
20260509064906 72 119 0.0 2.6 0.00 0.00 0.00 54 1022.1
20260509064759 72 119 0.0 2.6 0.00 0.00 0.00 54 1022.0
20260509064657 72 119 0.0 2.6 0.00 0.00 0.00 54 1022.1
20260509064558 72 119 0.0 2.6 0.00 0.00 0.00 54 1022.1
20260509064445 72 119 0.9 2.6 0.00 0.00 0.00 53 1022.2
20260509064342 72 119 0.9 2.6 0.00 0.00 0.00 53 1022.1
20260509064225 72 119 0.9 2.6 0.00 0.00 0.00 53 1022.0
20260509064118 72 119 0.9 4.3 0.00 0.00 0.00 53 1022.0
20260509064005 72 54 0.9 4.3 0.00 0.00 0.00 53 1022.0
20260509063855 72 49 0.9 4.3 0.00 0.00 0.00 53 1022.0
20260509063744 72 158 0.9 4.3 0.00 0.00 0.00 53 1022.1
20260509063635 72 111 0.9 4.3 0.00 0.00 0.00 52 1022.0
20260509063524 72 111 0.9 4.3 0.00 0.00 0.00 52 1022.0
20260509063415 72 132 1.7 4.3 0.00 0.00 0.00 52 1022.0
20260509063306 72 76 1.7 4.3 0.00 0.00 0.00 52 1022.0
20260509063155 72 85 1.7 4.3 0.00 0.00 0.00 52 1022.1
20260509063054 72 157 1.7 6.1 0.00 0.00 0.00 52 1022.0
20260509062953 72 71 1.7 6.1 0.00 0.00 0.00 52 1022.0
20260509062919 72 86 1.7 6.1 0.00 0.00 0.00 52 1021.9
20260509062733 72 93 1.7 6.1 0.00 0.00 0.00 52 1021.9
20260509062623 72 74 1.7 6.1 0.00 0.00 0.00 53 1021.9
20260509062516 72 112 1.7 6.1 0.00 0.00 0.00 53 1021.9
20260509062402 72 23 1.7 6.1 0.00 0.00 0.00 53 1021.9
20260509062254 72 45 0.9 6.1 0.00 0.00 0.00 52 1021.9
20260509062142 72 26 0.9 5.2 0.00 0.00 0.00 53 1021.8
20260509062033 72 71 0.9 5.2 0.00 0.00 0.00 53 1021.8
20260509061923 72 344 1.7 5.2 0.00 0.00 0.00 52 1021.8
20260509061813 73 67 1.7 5.2 0.00 0.00 0.00 53 1021.9
20260509061703 73 51 1.7 5.2 0.00 0.00 0.00 53 1021.9
20260509061555 73 73 1.7 5.2 0.00 0.00 0.00 52 1021.8
20260509061451 73 59 0.9 5.2 0.00 0.00 0.00 52 1021.8
20260509061351 73 59 1.7 3.5 0.00 0.00 0.00 51 1021.8
20260509061242 73 59 1.7 3.5 0.00 0.00 0.00 52 1021.9
20260509061131 73 63 1.7 3.5 0.00 0.00 0.00 51 1021.8
20260509061021 73 20 1.7 3.5 0.00 0.00 0.00 51 1021.8
20260509060910 73 38 1.7 3.5 0.00 0.00 0.00 51 1021.8
20260509060800 73 54 1.7 3.5 0.00 0.00 0.00 51 1021.8
20260509060651 73 55 1.7 4.3 0.00 0.00 0.00 51 1021.8
20260509060543 73 55 1.7 4.3 0.00 0.00 0.00 50 1021.8
20260509060435 73 90 1.7 4.3 0.00 0.00 0.00 50 1021.9
20260509060321 73 20 1.7 4.3 0.00 0.00 0.00 49 1021.8
20260509060216 73 150 1.7 4.3 0.00 0.00 0.00 51 1021.8
20260509060115 73 84 1.7 4.3 0.00 0.00 0.00 52 1021.7
20260509060015 73 90 0.9 4.3 0.00 0.00 0.00 50 1021.7
20260509055927 73 43 0.9 4.3 0.00 0.00 0.00 50 1021.7
20260509055817 73 52 0.9 4.3 0.00 0.00 0.00 49 1021.7
20260509055703 73 5 0.9 3.5 0.00 0.00 0.00 48 1021.7
20260509055601 73 48 0.9 5.2 0.00 0.00 0.00 50 1021.7
20260509055457 74 50 0.9 5.2 0.00 0.00 0.00 48 1021.7
20260509055400 74 63 0.9 5.2 0.00 0.00 0.00 50 1021.7
20260509055256 74 109 0.9 5.2 0.00 0.00 0.00 52 1021.7
20260509055200 74 111 1.7 5.2 0.00 0.00 0.00 50 1021.5
20260509055047 74 111 1.7 5.2 0.00 0.00 0.00 51 1021.7
20260509054937 74 111 1.7 5.2 0.00 0.00 0.00 49 1021.7
20260509054827 74 21 1.7 5.2 0.00 0.00 0.00 49 1021.7
20260509054716 74 167 1.7 5.2 0.00 0.00 0.00 49 1021.7
20260509054608 74 79 2.6 6.1 0.00 0.00 0.00 49 1021.8
20260509054457 74 75 2.6 6.1 0.00 0.00 0.00 47 1021.7
20260509054356 74 5 2.6 6.1 0.00 0.00 0.00 47 1021.8
20260509054152 74 94 1.7 6.1 0.00 0.00 0.00 48 1021.8
20260509054049 74 69 1.7 6.1 0.00 0.00 0.00 48 1021.8
20260509053950 74 82 1.7 6.1 0.00 0.00 0.00 47 1021.8
20260509053844 74 32 1.7 6.1 0.00 0.00 0.00 48 1021.8
20260509053729 74 355 1.7 6.1 0.00 0.00 0.00 48 1021.8
20260509053619 74 19 1.7 6.1 0.00 0.00 0.00 47 1021.8
20260509053509 75 20 1.7 6.1 0.00 0.00 0.00 47 1021.8
20260509053400 75 88 1.7 6.1 0.00 0.00 0.00 49 1021.7
20260509053249 75 83 1.7 6.1 0.00 0.00 0.00 46 1021.7
20260509053144 75 182 1.7 6.1 0.00 0.00 0.00 47 1021.8
20260509053043 75 12 1.7 6.1 0.00 0.00 0.00 48 1021.8
20260509052943 75 348 1.7 6.1 0.00 0.00 0.00 45 1021.8
20260509052839 75 74 1.7 6.1 0.00 0.00 0.00 47 1021.8
20260509052739 75 63 0.9 6.1 0.00 0.00 0.00 46 1021.8
20260509052628 75 30 0.9 4.3 0.00 0.00 0.00 46 1021.7
20260509052520 75 297 0.9 3.5 0.00 0.00 0.00 47 1021.7
20260509052300 75 24 0.9 3.5 0.00 0.00 0.00 47 1021.8
20260509052148 75 29 0.9 3.5 0.00 0.00 0.00 46 1021.7
20260509052037 75 348 0.9 3.5 0.00 0.00 0.00 47 1021.7
20260509051927 75 44 0.9 3.5 0.00 0.00 0.00 47 1021.8
20260509051817 75 16 0.9 3.5 0.00 0.00 0.00 46 1021.7
20260509051707 75 338 1.7 3.5 0.00 0.00 0.00 46 1021.8
20260509051557 75 96 1.7 4.3 0.00 0.00 0.00 47 1021.7
20260509051448 75 84 1.7 4.3 0.00 0.00 0.00 46 1021.8
20260509051336 75 85 1.7 4.3 0.00 0.00 0.00 45 1021.8
20260509051235 75 32 1.7 4.3 0.00 0.00 0.00 47 1021.8
20260509051137 76 64 1.7 4.3 0.00 0.00 0.00 49 1021.7
20260509051025 76 112 1.7 4.3 0.00 0.00 0.00 46 1021.7
20260509050915 76 78 1.7 4.3 0.00 0.00 0.00 45 1021.7
20260509050805 76 134 1.7 6.1 0.00 0.00 0.00 46 1021.7
20260509050701 76 157 1.7 6.1 0.00 0.00 0.00 43 1021.7
20260509050547 76 61 2.6 6.1 0.00 0.00 0.00 43 1021.6
20260509050437 77 79 2.6 6.1 0.00 0.00 0.00 44 1021.7
20260509050328 76 75 2.6 6.1 0.00 0.00 0.00 45 1021.8
20260509050218 76 95 2.6 6.1 0.00 0.00 0.00 46 1021.7
20260509050107 75 78 2.6 6.1 0.00 0.00 0.00 43 1021.7
20260509045957 75 65 2.6 6.1 0.00 0.00 0.00 43 1021.7
20260509045847 75 17 1.7 6.1 0.00 0.00 0.00 43 1021.6
20260509045742 75 91 1.7 6.1 0.00 0.00 0.00 43 1021.7
20260509045639 75 40 1.7 6.1 0.00 0.00 0.00 43 1021.7
20260509045538 76 106 1.7 5.2 0.00 0.00 0.00 43 1021.6
20260509045430 76 5 1.7 5.2 0.00 0.00 0.00 45 1021.7
20260509045323 76 25 1.7 5.2 0.00 0.00 0.00 43 1021.6
20260509045214 76 86 1.7 5.2 0.00 0.00 0.00 43 1021.6
20260509045105 76 72 2.6 4.3 0.00 0.00 0.00 42 1021.7
20260509044955 75 84 2.6 7.8 0.00 0.00 0.00 42 1021.6
20260509044852 75 344 1.7 7.8 0.00 0.00 0.00 43 1021.6
20260509044749 75 15 1.7 7.8 0.00 0.00 0.00 43 1021.5
20260509044648 75 51 1.7 7.8 0.00 0.00 0.00 42 1021.6
20260509044546 75 5 1.7 7.8 0.00 0.00 0.00 42 1021.6
20260509044442 76 0 1.7 7.8 0.00 0.00 0.00 43 1021.6
20260509044343 76 94 1.7 7.8 0.00 0.00 0.00 41 1021.5
20260509044240 76 77 1.7 7.8 0.00 0.00 0.00 45 1021.6
20260509044136 76 73 1.7 7.8 0.00 0.00 0.00 41 1021.6
20260509044032 76 43 1.7 7.0 0.00 0.00 0.00 42 1021.5
20260509043925 76 59 1.7 7.0 0.00 0.00 0.00 42 1021.5
20260509043817 76 298 2.6 7.0 0.00 0.00 0.00 42 1021.5
20260509043601 75 17 2.6 7.0 0.00 0.00 0.00 42 1021.4
20260509043453 75 321 2.6 7.0 0.00 0.00 0.00 41 1021.5
20260509043351 76 11 2.6 7.0 0.00 0.00 0.00 43 1021.5
20260509043252 76 84 2.6 8.7 0.00 0.00 0.00 42 1021.4
20260509043141 76 88 2.6 8.7 0.00 0.00 0.00 41 1021.5
20260509043031 76 30 2.6 8.7 0.00 0.00 0.00 40 1021.5
20260509042921 76 67 1.7 8.7 0.00 0.00 0.00 42 1021.4
20260509042812 76 93 1.7 8.7 0.00 0.00 0.00 42 1021.5
20260509042707 76 55 1.7 8.7 0.00 0.00 0.00 43 1021.5
20260509042605 76 223 1.7 8.7 0.00 0.00 0.00 42 1021.5
20260509042505 76 51 1.7 8.7 0.00 0.00 0.00 39 1021.6
20260509042402 76 155 1.7 8.7 0.00 0.00 0.00 41 1021.5
20260509042306 76 75 1.7 7.0 0.00 0.00 0.00 40 1021.5
20260509042201 76 57 1.7 7.0 0.00 0.00 0.00 41 1021.5
20260509042059 76 128 1.7 7.0 0.00 0.00 0.00 43 1021.6
20260509041959 76 355 1.7 5.2 0.00 0.00 0.00 43 1021.6
20260509041857 76 311 1.7 5.2 0.00 0.00 0.00 43 1021.5
20260509041753 76 311 1.7 5.2 0.00 0.00 0.00 42 1021.6
20260509041653 76 53 1.7 5.2 0.00 0.00 0.00 41 1021.5
20260509041547 76 57 1.7 5.2 0.00 0.00 0.00 41 1021.6
20260509041439 76 13 1.7 4.3 0.00 0.00 0.00 46 1021.6
20260509041328 76 332 1.7 7.0 0.00 0.00 0.00 43 1021.5
20260509041113 76 74 1.7 7.0 0.00 0.00 0.00 41 1021.6
20260509041013 76 44 1.7 7.0 0.00 0.00 0.00 43 1021.6
20260509040909 76 332 1.7 7.0 0.00 0.00 0.00 44 1021.6
20260509040800 76 36 1.7 7.0 0.00 0.00 0.00 40 1021.6
20260509040649 76 28 1.7 7.0 0.00 0.00 0.00 43 1021.6
20260509040542 76 93 1.7 7.0 0.00 0.00 0.00 44 1021.6
20260509040436 76 67 2.6 7.0 0.00 0.00 0.00 42 1021.6
20260509040336 76 63 2.6 7.8 0.00 0.00 0.00 43 1021.6
20260509040236 76 54 2.6 7.8 0.00 0.00 0.00 42 1021.6
20260509040125 76 83 2.6 7.8 0.00 0.00 0.00 45 1021.6
20260509040018 75 73 3.5 7.8 0.00 0.00 0.00 43 1021.6